Time,TemperatureF,DewpointF,PressureIn,WindDirection,WindDirectionDegrees,WindSpeedMPH,WindSpeedGustMPH,Humidity,HourlyPrecipIn,Conditions,Clouds,dailyrainin,SolarRadiationWatts/m^2,SoftwareType,DateUTC
2013-01-23 00:00:00,8.6,-15.2,30.05,WSW,256,4.0,6.0,32,0.00,,CLR,0.00,0.00,VWS V14.01,2013-01-23 05:00:00,
2013-01-23 00:01:00,8.6,-15.2,30.05,West,281,7.0,7.0,32,0.00,,CLR,0.00,0.00,VWS V14.01,2013-01-23 05:01:00,
2013-01-23 00:03:00,8.6,-15.8,30.05,WNW,285,7.0,9.0,31,0.00,,CLR,0.00,0.00,VWS V14.01,2013-01-23 05:03:00,
2013-01-23 00:05:00,8.1,-15.6,30.04,WSW,251,10.0,13.0,32,0.00,,CLR,0.00,0.00,VWS V14.01,2013-01-23 05:05:00,
2013-01-23 00:08:00,8.6,-15.2,30.05,West,264,3.0,11.0,32,0.00,,CLR,0.00,0.00,VWS V14.01,2013-01-23 05:08:00,
2013-01-23 00:10:00,8.1,-15.0,30.04,West,268,4.0,5.0,33,0.00,,CLR,0.00,0.00,VWS V14.01,2013-01-23 05:10:00,
2013-01-23 00:13:00,8.4,-15.4,30.05,SW,226,1.0,6.0,32,0.00,,CLR,0.00,0.00,VWS V14.01,2013-01-23 05:13:00,
2013-01-23 00:15:00,8.1,-15.0,30.05,West,261,3.0,11.0,33,0.00,,CLR,0.00,0.00,VWS V14.01,2013-01-23 05:15:00,
2013-01-23 00:18:00,8.4,-15.4,30.05,WSW,239,0.0,5.0,32,0.00,,CLR,0.00,0.00,VWS V14.01,2013-01-23 05:18:00,
2013-01-23 00:20:00,7.9,-15.2,30.05,WSW,250,8.0,9.0,33,0.00,,CLR,0.00,0.00,VWS V14.01,2013-01-23 05:20:00,
2013-01-23 00:23:00,8.4,-15.4,30.05,WSW,240,6.0,8.0,32,0.00,,CLR,0.00,0.00,VWS V14.01,2013-01-23 05:23:00,
2013-01-23 00:25:00,7.9,-14.6,30.05,SW,232,2.0,7.0,34,0.00,,CLR,0.00,0.00,VWS V14.01,2013-01-23 05:25:00,
2013-01-23 00:28:00,8.4,-15.4,30.05,WSW,246,4.0,11.0,32,0.00,,CLR,0.00,0.00,VWS V14.01,2013-01-23 05:28:00,
2013-01-23 00:30:00,7.9,-14.6,30.05,SW,223,2.0,12.0,34,0.00,,CLR,0.00,0.00,VWS V14.01,2013-01-23 05:30:00,
2013-01-23 00:33:00,8.4,-15.4,30.05,WSW,251,4.0,11.0,32,0.00,,CLR,0.00,0.00,VWS V14.01,2013-01-23 05:33:00,
2013-01-23 00:35:00,7.9,-14.6,30.05,WSW,250,0.0,5.0,34,0.00,,CLR,0.00,0.00,VWS V14.01,2013-01-23 05:35:00,
2013-01-23 00:38:00,8.4,-15.4,30.05,West,264,4.0,8.0,32,0.00,,CLR,0.00,0.00,VWS V14.01,2013-01-23 05:38:00,
2013-01-23 00:40:00,7.9,-14.6,30.05,WSW,244,4.0,12.0,34,0.00,,CLR,0.00,0.00,VWS V14.01,2013-01-23 05:40:00,
2013-01-23 00:43:00,8.3,-14.9,30.05,WSW,243,5.0,8.0,33,0.00,,CLR,0.00,0.00,VWS V14.01,2013-01-23 05:43:00,
2013-01-23 00:45:00,7.9,-14.6,30.05,WSW,250,7.0,13.0,34,0.00,,CLR,0.00,0.00,VWS V14.01,2013-01-23 05:45:00,
2013-01-23 00:48:00,8.3,-14.9,30.05,SW,229,3.0,6.0,33,0.00,,CLR,0.00,0.00,VWS V14.01,2013-01-23 05:48:00,
2013-01-23 00:50:00,7.9,-14.6,30.05,SW,224,5.0,5.0,34,0.00,,CLR,0.00,0.00,VWS V14.01,2013-01-23 05:50:00,
2013-01-23 00:53:00,8.1,-15.0,30.05,SW,227,5.0,8.0,33,0.00,,CLR,0.00,0.00,VWS V14.01,2013-01-23 05:53:00,
2013-01-23 00:55:00,7.9,-14.6,30.05,WSW,251,3.0,7.0,34,0.00,,CLR,0.00,0.00,VWS V14.01,2013-01-23 05:55:00,
2013-01-23 00:58:00,8.1,-15.0,30.05,West,260,2.0,9.0,33,0.00,,CLR,0.00,0.00,VWS V14.01,2013-01-23 05:58:00,
2013-01-23 01:00:00,7.9,-14.6,30.05,West,271,2.0,6.0,34,0.00,,CLR,0.00,0.00,VWS V14.01,2013-01-23 06:00:00,
2013-01-23 01:03:00,8.1,-15.0,30.04,WSW,246,11.0,12.0,33,0.00,,CLR,0.00,0.00,VWS V14.01,2013-01-23 06:03:00,
2013-01-23 01:05:00,7.9,-14.1,30.05,WSW,247,3.0,12.0,35,0.00,,CLR,0.00,0.00,VWS V14.01,2013-01-23 06:05:00,
2013-01-23 01:08:00,8.1,-15.6,30.04,SW,232,1.0,10.0,32,0.00,,CLR,0.00,0.00,VWS V14.01,2013-01-23 06:08:00,
2013-01-23 01:10:00,7.9,-14.1,30.05,West,263,2.0,7.0,35,0.00,,CLR,0.00,0.00,VWS V14.01,2013-01-23 06:10:00,
2013-01-23 01:13:00,8.1,-15.0,30.04,WSW,247,6.0,12.0,33,0.00,,CLR,0.00,0.00,VWS V14.01,2013-01-23 06:13:00,
2013-01-23 01:15:00,7.9,-14.1,30.06,SW,227,8.0,10.0,35,0.00,,CLR,0.00,0.00,VWS V14.01,2013-01-23 06:15:00,
2013-01-23 01:18:00,8.1,-15.0,30.05,WSW,241,6.0,8.0,33,0.00,,CLR,0.00,0.00,VWS V14.01,2013-01-23 06:18:00,
2013-01-23 01:20:00,7.9,-14.1,30.06,WSW,258,10.0,10.0,35,0.00,,CLR,0.00,0.00,VWS V14.01,2013-01-23 06:20:00,
2013-01-23 01:23:00,7.9,-15.2,30.05,WSW,240,1.0,3.0,33,0.00,,CLR,0.00,0.00,VWS V14.01,2013-01-23 06:23:00,
2013-01-23 01:25:00,7.9,-14.1,30.06,WSW,254,4.0,10.0,35,0.00,,CLR,0.00,0.00,VWS V14.01,2013-01-23 06:25:00,
2013-01-23 01:28:00,7.9,-14.6,30.05,SW,233,0.0,6.0,34,0.00,,CLR,0.00,0.00,VWS V14.01,2013-01-23 06:28:00,
2013-01-23 01:30:00,7.7,-14.2,30.07,West,278,4.0,5.0,35,0.00,,CLR,0.00,0.00,VWS V14.01,2013-01-23 06:30:00,
2013-01-23 01:33:00,7.9,-14.6,30.05,SW,230,4.0,9.0,34,0.00,,CLR,0.00,0.00,VWS V14.01,2013-01-23 06:33:00,
2013-01-23 01:35:00,7.7,-14.2,30.07,SW,236,3.0,11.0,35,0.00,,CLR,0.00,0.00,VWS V14.01,2013-01-23 06:35:00,
2013-01-23 01:38:00,7.9,-14.6,30.05,West,275,2.0,7.0,34,0.00,,CLR,0.00,0.00,VWS V14.01,2013-01-23 06:38:00,
2013-01-23 01:40:00,7.7,-13.7,30.07,WSW,237,8.0,9.0,36,0.00,,CLR,0.00,0.00,VWS V14.01,2013-01-23 06:40:00,
2013-01-23 01:43:00,7.9,-14.6,30.05,West,263,9.0,13.0,34,0.00,,CLR,0.00,0.00,VWS V14.01,2013-01-23 06:43:00,
2013-01-23 01:45:00,7.7,-13.7,30.07,WSW,247,4.0,10.0,36,0.00,,CLR,0.00,0.00,VWS V14.01,2013-01-23 06:45:00,
2013-01-23 01:48:00,7.9,-14.6,30.05,West,270,3.0,13.0,34,0.00,,CLR,0.00,0.00,VWS V14.01,2013-01-23 06:48:00,
2013-01-23 01:50:00,7.7,-13.1,30.07,West,261,10.0,10.0,37,0.00,,CLR,0.00,0.00,VWS V14.01,2013-01-23 06:50:00,
2013-01-23 01:53:00,7.9,-14.6,30.05,SW,217,6.0,17.0,34,0.00,,CLR,0.00,0.00,VWS V14.01,2013-01-23 06:53:00,
2013-01-23 01:55:00,7.6,-13.2,30.07,West,270,2.0,5.0,37,0.00,,CLR,0.00,0.00,VWS V14.01,2013-01-23 06:55:00,
2013-01-23 01:58:00,7.9,-14.6,30.05,WNW,285,5.0,7.0,34,0.00,,CLR,0.00,0.00,VWS V14.01,2013-01-23 06:58:00,
2013-01-23 02:03:00,7.9,-14.1,30.05,SW,232,3.0,7.0,35,0.00,,CLR,0.00,0.00,VWS V14.01,2013-01-23 07:03:00,
2013-01-23 02:05:00,7.6,-13.2,30.06,West,264,5.0,9.0,37,0.00,,CLR,0.00,0.00,VWS V14.01,2013-01-23 07:05:00,
2013-01-23 02:08:00,7.9,-14.1,30.05,West,272,2.0,11.0,35,0.00,,CLR,0.00,0.00,VWS V14.01,2013-01-23 07:08:00,
2013-01-23 02:10:00,7.6,-12.7,30.06,WSW,256,5.0,7.0,38,0.00,,CLR,0.00,0.00,VWS V14.01,2013-01-23 07:10:00,
2013-01-23 02:13:00,7.9,-14.1,30.05,WSW,250,5.0,10.0,35,0.00,,CLR,0.00,0.00,VWS V14.01,2013-01-23 07:13:00,
2013-01-23 02:15:00,7.4,-12.9,30.06,WNW,285,4.0,10.0,38,0.00,,CLR,0.00,0.00,VWS V14.01,2013-01-23 07:15:00,
2013-01-23 02:18:00,7.9,-14.1,30.06,WSW,256,11.0,12.0,35,0.00,,CLR,0.00,0.00,VWS V14.01,2013-01-23 07:18:00,
2013-01-23 02:20:00,7.4,-12.9,30.06,WSW,251,1.0,3.0,38,0.00,,CLR,0.00,0.00,VWS V14.01,2013-01-23 07:20:00,
2013-01-23 02:23:00,7.9,-14.1,30.06,WNW,284,1.0,4.0,35,0.00,,CLR,0.00,0.00,VWS V14.01,2013-01-23 07:23:00,
2013-01-23 02:25:00,7.4,-12.9,30.06,WSW,243,2.0,11.0,38,0.00,,CLR,0.00,0.00,VWS V14.01,2013-01-23 07:25:00,
2013-01-23 02:28:00,7.9,-14.1,30.06,SW,222,5.0,6.0,35,0.00,,CLR,0.00,0.00,VWS V14.01,2013-01-23 07:28:00,
2013-01-23 02:30:00,7.4,-12.4,30.06,West,268,5.0,5.0,39,0.00,,CLR,0.00,0.00,VWS V14.01,2013-01-23 07:30:00,
2013-01-23 02:33:00,7.7,-13.7,30.07,WSW,240,11.0,11.0,36,0.00,,CLR,0.00,0.00,VWS V14.01,2013-01-23 07:33:00,
2013-01-23 02:35:00,7.4,-12.4,30.06,WNW,285,2.0,10.0,39,0.00,,CLR,0.00,0.00,VWS V14.01,2013-01-23 07:35:00,
2013-01-23 02:38:00,7.7,-13.7,30.07,NW,312,2.0,5.0,36,0.00,,CLR,0.00,0.00,VWS V14.01,2013-01-23 07:38:00,
2013-01-23 02:40:00,7.4,-12.4,30.06,West,264,2.0,6.0,39,0.00,,CLR,0.00,0.00,VWS V14.01,2013-01-23 07:40:00,
2013-01-23 02:43:00,7.7,-13.7,30.07,West,277,1.0,6.0,36,0.00,,CLR,0.00,0.00,VWS V14.01,2013-01-23 07:43:00,
2013-01-23 02:45:00,7.2,-12.0,30.06,WSW,239,1.0,5.0,40,0.00,,CLR,0.00,0.00,VWS V14.01,2013-01-23 07:45:00,
2013-01-23 02:48:00,7.7,-13.7,30.07,West,260,3.0,6.0,36,0.00,,CLR,0.00,0.00,VWS V14.01,2013-01-23 07:48:00,
2013-01-23 02:50:00,7.2,-12.0,30.06,WSW,250,6.0,10.0,40,0.00,,CLR,0.00,0.00,VWS V14.01,2013-01-23 07:50:00,
2013-01-23 02:53:00,7.6,-13.2,30.07,SW,236,3.0,5.0,37,0.00,,CLR,0.00,0.00,VWS V14.01,2013-01-23 07:53:00,
2013-01-23 02:55:00,7.2,-12.0,30.06,WSW,237,6.0,6.0,40,0.00,,CLR,0.00,0.00,VWS V14.01,2013-01-23 07:55:00,
2013-01-23 02:58:00,7.6,-13.2,30.07,SW,229,6.0,7.0,37,0.00,,CLR,0.00,0.00,VWS V14.01,2013-01-23 07:58:00,
2013-01-23 03:00:00,7.2,-12.0,30.06,SSW,199,1.0,8.0,40,0.00,,CLR,0.00,0.00,VWS V14.01,2013-01-23 08:00:00,
2013-01-23 03:03:00,7.6,-13.2,30.06,West,271,7.0,7.0,37,0.00,,CLR,0.00,0.00,VWS V14.01,2013-01-23 08:03:00,
2013-01-23 03:05:00,7.0,-12.2,30.06,SW,219,2.0,10.0,40,0.00,,CLR,0.00,0.00,VWS V14.01,2013-01-23 08:05:00,
2013-01-23 03:08:00,7.6,-12.7,30.06,WNW,282,2.0,6.0,38,0.00,,CLR,0.00,0.00,VWS V14.01,2013-01-23 08:08:00,
2013-01-23 03:10:00,7.0,-11.7,30.06,WSW,253,1.0,6.0,41,0.00,,CLR,0.00,0.00,VWS V14.01,2013-01-23 08:10:00,
2013-01-23 03:13:00,7.4,-12.9,30.06,SW,216,6.0,6.0,38,0.00,,CLR,0.00,0.00,VWS V14.01,2013-01-23 08:13:00,
2013-01-23 03:15:00,7.0,-11.7,30.06,WSW,251,0.0,7.0,41,0.00,,CLR,0.00,0.00,VWS V14.01,2013-01-23 08:15:00,
2013-01-23 03:18:00,7.4,-12.9,30.06,WSW,247,2.0,12.0,38,0.00,,CLR,0.00,0.00,VWS V14.01,2013-01-23 08:18:00,
2013-01-23 03:20:00,7.0,-11.7,30.06,WSW,243,3.0,11.0,41,0.00,,CLR,0.00,0.00,VWS V14.01,2013-01-23 08:20:00,
2013-01-23 03:23:00,7.4,-12.9,30.06,West,261,5.0,10.0,38,0.00,,CLR,0.00,0.00,VWS V14.01,2013-01-23 08:23:00,
2013-01-23 03:25:00,7.0,-11.7,30.06,SW,224,2.0,7.0,41,0.00,,CLR,0.00,0.00,VWS V14.01,2013-01-23 08:25:00,
2013-01-23 03:28:00,7.4,-12.4,30.06,SW,224,2.0,6.0,39,0.00,,CLR,0.00,0.00,VWS V14.01,2013-01-23 08:28:00,
2013-01-23 03:30:00,7.0,-11.2,30.06,WSW,246,3.0,6.0,42,0.00,,CLR,0.00,0.00,VWS V14.01,2013-01-23 08:30:00,
2013-01-23 03:33:00,7.4,-12.4,30.06,WSW,239,3.0,11.0,39,0.00,,CLR,0.00,0.00,VWS V14.01,2013-01-23 08:33:00,
2013-01-23 03:35:00,7.0,-11.2,30.06,SW,226,7.0,11.0,42,0.00,,CLR,0.00,0.00,VWS V14.01,2013-01-23 08:35:00,
2013-01-23 03:38:00,7.4,-12.4,30.06,WSW,243,2.0,10.0,39,0.00,,CLR,0.00,0.00,VWS V14.01,2013-01-23 08:38:00,
2013-01-23 03:40:00,6.9,-11.3,30.06,WSW,253,5.0,8.0,42,0.00,,CLR,0.00,0.00,VWS V14.01,2013-01-23 08:40:00,
2013-01-23 03:43:00,7.2,-12.5,30.06,WNW,282,1.0,9.0,39,0.00,,CLR,0.00,0.00,VWS V14.01,2013-01-23 08:43:00,
2013-01-23 03:45:00,6.9,-11.3,30.07,SW,227,4.0,6.0,42,0.00,,CLR,0.00,0.00,VWS V14.01,2013-01-23 08:45:00,
2013-01-23 03:48:00,7.2,-12.0,30.06,West,264,9.0,9.0,40,0.00,,CLR,0.00,0.00,VWS V14.01,2013-01-23 08:48:00,
2013-01-23 03:50:00,6.9,-11.3,30.07,SW,229,3.0,10.0,42,0.00,,CLR,0.00,0.00,VWS V14.01,2013-01-23 08:50:00,
2013-01-23 03:53:00,7.2,-12.0,30.06,WSW,254,2.0,6.0,40,0.00,,CLR,0.00,0.00,VWS V14.01,2013-01-23 08:53:00,
2013-01-23 03:55:00,6.9,-11.3,30.07,WSW,239,3.0,13.0,42,0.00,,CLR,0.00,0.00,VWS V14.01,2013-01-23 08:55:00,
2013-01-23 03:58:00,7.2,-12.0,30.06,West,277,0.0,8.0,40,0.00,,CLR,0.00,0.00,VWS V14.01,2013-01-23 08:58:00,
2013-01-23 04:00:00,6.9,-11.3,30.07,West,274,0.0,3.0,42,0.00,,CLR,0.00,0.00,VWS V14.01,2013-01-23 09:00:00,
2013-01-23 04:03:00,7.2,-12.0,30.06,West,278,9.0,9.0,40,0.00,,CLR,0.00,0.00,VWS V14.01,2013-01-23 09:03:00,
2013-01-23 04:05:00,6.9,-11.3,30.07,West,277,4.0,5.0,42,0.00,,CLR,0.00,0.00,VWS V14.01,2013-01-23 09:05:00,
2013-01-23 04:08:00,7.0,-11.7,30.06,WSW,253,2.0,8.0,41,0.00,,CLR,0.00,0.00,VWS V14.01,2013-01-23 09:08:00,
2013-01-23 04:10:00,6.9,-10.9,30.07,West,270,4.0,5.0,43,0.00,,CLR,0.00,0.00,VWS V14.01,2013-01-23 09:10:00,
2013-01-23 04:13:00,7.0,-11.7,30.06,WSW,248,4.0,11.0,41,0.00,,CLR,0.00,0.00,VWS V14.01,2013-01-23 09:13:00,
2013-01-23 04:15:00,6.9,-11.3,30.07,WSW,251,7.0,13.0,42,0.00,,CLR,0.00,0.00,VWS V14.01,2013-01-23 09:15:00,
2013-01-23 04:18:00,7.0,-11.7,30.06,WSW,251,7.0,7.0,41,0.00,,CLR,0.00,0.00,VWS V14.01,2013-01-23 09:18:00,
2013-01-23 04:20:00,6.9,-11.3,30.07,WNW,294,6.0,7.0,42,0.00,,CLR,0.00,0.00,VWS V14.01,2013-01-23 09:20:00,
2013-01-23 04:23:00,7.0,-11.7,30.06,WSW,243,0.0,2.0,41,0.00,,CLR,0.00,0.00,VWS V14.01,2013-01-23 09:23:00,
2013-01-23 04:25:00,6.7,-11.0,30.07,WSW,250,6.0,10.0,43,0.00,,CLR,0.00,0.00,VWS V14.01,2013-01-23 09:25:00,
2013-01-23 04:28:00,7.0,-11.2,30.06,West,261,8.0,12.0,42,0.00,,CLR,0.00,0.00,VWS V14.01,2013-01-23 09:28:00,
2013-01-23 04:30:00,6.7,-11.0,30.07,WNW,284,4.0,11.0,43,0.00,,CLR,0.00,0.00,VWS V14.01,2013-01-23 09:30:00,
2013-01-23 04:33:00,7.0,-11.7,30.06,WSW,248,1.0,10.0,41,0.00,,CLR,0.00,0.00,VWS V14.01,2013-01-23 09:33:00,
2013-01-23 04:35:00,6.7,-11.0,30.07,SW,227,12.0,12.0,43,0.00,,CLR,0.00,0.00,VWS V14.01,2013-01-23 09:35:00,
2013-01-23 04:38:00,6.9,-11.3,30.06,SW,236,2.0,7.0,42,0.00,,CLR,0.00,0.00,VWS V14.01,2013-01-23 09:38:00,
2013-01-23 04:40:00,6.7,-11.0,30.07,WSW,250,5.0,11.0,43,0.00,,CLR,0.00,0.00,VWS V14.01,2013-01-23 09:40:00,
2013-01-23 04:43:00,6.9,-11.3,30.06,WSW,247,3.0,7.0,42,0.00,,CLR,0.00,0.00,VWS V14.01,2013-01-23 09:43:00,
2013-01-23 04:45:00,6.7,-11.0,30.07,WSW,256,7.0,12.0,43,0.00,,CLR,0.00,0.00,VWS V14.01,2013-01-23 09:45:00,
2013-01-23 04:48:00,6.9,-11.3,30.07,WSW,246,11.0,13.0,42,0.00,,CLR,0.00,0.00,VWS V14.01,2013-01-23 09:48:00,
2013-01-23 04:50:00,6.7,-10.6,30.07,NW,309,6.0,11.0,44,0.00,,CLR,0.00,0.00,VWS V14.01,2013-01-23 09:50:00,
2013-01-23 04:53:00,6.9,-11.3,30.07,WSW,244,1.0,7.0,42,0.00,,CLR,0.00,0.00,VWS V14.01,2013-01-23 09:53:00,
2013-01-23 04:55:00,6.7,-10.6,30.07,WSW,258,1.0,7.0,44,0.00,,CLR,0.00,0.00,VWS V14.01,2013-01-23 09:55:00,
2013-01-23 04:58:00,6.9,-11.3,30.07,WNW,284,5.0,13.0,42,0.00,,CLR,0.00,0.00,VWS V14.01,2013-01-23 09:58:00,
2013-01-23 05:00:00,6.7,-10.6,30.07,WNW,302,3.0,5.0,44,0.00,,CLR,0.00,0.00,VWS V14.01,2013-01-23 10:00:00,
2013-01-23 05:03:00,6.9,-11.3,30.07,SW,229,0.0,4.0,42,0.00,,CLR,0.00,0.00,VWS V14.01,2013-01-23 10:03:00,
2013-01-23 05:05:00,6.5,-10.8,30.07,West,268,7.0,7.0,44,0.00,,CLR,0.00,0.00,VWS V14.01,2013-01-23 10:05:00,
2013-01-23 05:08:00,6.9,-11.3,30.07,WSW,250,1.0,8.0,42,0.00,,CLR,0.00,0.00,VWS V14.01,2013-01-23 10:08:00,
2013-01-23 05:10:00,6.5,-10.8,30.07,West,261,5.0,8.0,44,0.00,,CLR,0.00,0.00,VWS V14.01,2013-01-23 10:10:00,
2013-01-23 05:13:00,6.9,-10.9,30.07,WSW,253,5.0,13.0,43,0.00,,CLR,0.00,0.00,VWS V14.01,2013-01-23 10:13:00,
2013-01-23 05:15:00,6.5,-10.3,30.07,West,275,13.0,13.0,45,0.00,,CLR,0.00,0.00,VWS V14.01,2013-01-23 10:15:00,
2013-01-23 05:18:00,6.9,-11.3,30.07,West,268,7.0,11.0,42,0.00,,CLR,0.00,0.00,VWS V14.01,2013-01-23 10:18:00,
2013-01-23 05:20:00,6.5,-10.3,30.07,WSW,237,11.0,11.0,45,0.00,,CLR,0.00,0.00,VWS V14.01,2013-01-23 10:20:00,
2013-01-23 05:23:00,6.9,-10.9,30.07,WSW,251,2.0,8.0,43,0.00,,CLR,0.00,0.00,VWS V14.01,2013-01-23 10:23:00,
2013-01-23 05:25:00,6.5,-10.3,30.07,WSW,253,2.0,7.0,45,0.00,,CLR,0.00,0.00,VWS V14.01,2013-01-23 10:25:00,
2013-01-23 05:28:00,6.7,-11.0,30.07,West,260,2.0,9.0,43,0.00,,CLR,0.00,0.00,VWS V14.01,2013-01-23 10:28:00,
2013-01-23 05:30:00,6.5,-10.3,30.07,WSW,248,2.0,10.0,45,0.00,,CLR,0.00,0.00,VWS V14.01,2013-01-23 10:30:00,
2013-01-23 05:33:00,6.7,-11.0,30.07,SSW,203,9.0,11.0,43,0.00,,CLR,0.00,0.00,VWS V14.01,2013-01-23 10:33:00,
2013-01-23 05:35:00,6.5,-9.9,30.07,SW,229,2.0,4.0,46,0.00,,CLR,0.00,0.00,VWS V14.01,2013-01-23 10:35:00,
2013-01-23 05:38:00,6.7,-11.0,30.07,WSW,258,7.0,11.0,43,0.00,,CLR,0.00,0.00,VWS V14.01,2013-01-23 10:38:00,
2013-01-23 05:40:00,6.5,-9.9,30.07,WSW,256,7.0,7.0,46,0.00,,CLR,0.00,0.00,VWS V14.01,2013-01-23 10:40:00,
2013-01-23 05:43:00,6.7,-11.0,30.07,SW,232,5.0,11.0,43,0.00,,CLR,0.00,0.00,VWS V14.01,2013-01-23 10:43:00,
2013-01-23 05:45:00,6.5,-9.9,30.07,SW,232,8.0,11.0,46,0.00,,CLR,0.00,0.00,VWS V14.01,2013-01-23 10:45:00,
2013-01-23 05:48:00,6.7,-11.0,30.07,WSW,257,1.0,5.0,43,0.00,,CLR,0.00,0.00,VWS V14.01,2013-01-23 10:48:00,
2013-01-23 05:50:00,6.5,-9.9,30.07,WSW,240,6.0,12.0,46,0.00,,CLR,0.00,0.00,VWS V14.01,2013-01-23 10:50:00,
2013-01-23 05:53:00,6.7,-10.6,30.07,WNW,298,4.0,14.0,44,0.00,,CLR,0.00,0.00,VWS V14.01,2013-01-23 10:53:00,
2013-01-23 05:55:00,6.5,-9.9,30.07,WSW,239,10.0,10.0,46,0.00,,CLR,0.00,0.00,VWS V14.01,2013-01-23 10:55:00,
2013-01-23 05:58:00,6.7,-10.6,30.07,WSW,256,6.0,13.0,44,0.00,,CLR,0.00,0.00,VWS V14.01,2013-01-23 10:58:00,
2013-01-23 06:00:00,6.5,-9.9,30.07,WSW,257,0.0,3.0,46,0.00,,CLR,0.00,0.00,VWS V14.01,2013-01-23 11:00:00,
2013-01-23 06:03:00,6.7,-10.6,30.07,SW,233,8.0,11.0,44,0.00,,CLR,0.00,0.00,VWS V14.01,2013-01-23 11:03:00,
2013-01-23 06:05:00,6.3,-9.6,30.07,SW,216,1.0,11.0,47,0.00,,CLR,0.00,0.00,VWS V14.01,2013-01-23 11:05:00,
2013-01-23 06:08:00,6.7,-10.6,30.07,WSW,251,2.0,8.0,44,0.00,,CLR,0.00,0.00,VWS V14.01,2013-01-23 11:08:00,
2013-01-23 06:10:00,6.3,-9.6,30.07,WNW,282,2.0,8.0,47,0.00,,CLR,0.00,0.00,VWS V14.01,2013-01-23 11:10:00,
2013-01-23 06:13:00,6.5,-10.3,30.07,SW,230,5.0,5.0,45,0.00,,CLR,0.00,0.00,VWS V14.01,2013-01-23 11:13:00,
2013-01-23 06:15:00,6.3,-9.6,30.08,WSW,243,3.0,5.0,47,0.00,,CLR,0.00,0.00,VWS V14.01,2013-01-23 11:15:00,
2013-01-23 06:18:00,6.5,-10.3,30.07,SW,227,5.0,9.0,45,0.00,,CLR,0.00,0.00,VWS V14.01,2013-01-23 11:18:00,
2013-01-23 06:20:00,6.3,-9.2,30.08,West,280,4.0,8.0,48,0.00,,CLR,0.00,0.00,VWS V14.01,2013-01-23 11:20:00,
2013-01-23 06:23:00,6.5,-10.3,30.07,WSW,251,6.0,8.0,45,0.00,,CLR,0.00,0.00,VWS V14.01,2013-01-23 11:23:00,
2013-01-23 06:25:00,6.3,-9.2,30.08,West,261,2.0,6.0,48,0.00,,CLR,0.00,0.00,VWS V14.01,2013-01-23 11:25:00,
2013-01-23 06:28:00,6.5,-10.3,30.07,WSW,256,0.0,6.0,45,0.00,,CLR,0.00,0.00,VWS V14.01,2013-01-23 11:28:00,
2013-01-23 06:30:00,6.3,-9.2,30.07,SW,229,0.0,3.0,48,0.00,,CLR,0.00,5.00,VWS V14.01,2013-01-23 11:30:00,
2013-01-23 06:33:00,6.5,-9.9,30.07,West,263,5.0,11.0,46,0.00,,CLR,0.00,0.00,VWS V14.01,2013-01-23 11:33:00,
2013-01-23 06:35:00,6.3,-9.2,30.07,West,271,2.0,6.0,48,0.00,,CLR,0.00,7.00,VWS V14.01,2013-01-23 11:35:00,
2013-01-23 06:38:00,6.5,-9.9,30.07,West,267,2.0,3.0,46,0.00,,CLR,0.00,0.00,VWS V14.01,2013-01-23 11:38:00,
2013-01-23 06:40:00,6.3,-9.2,30.07,SW,219,3.0,14.0,48,0.00,,CLR,0.00,11.00,VWS V14.01,2013-01-23 11:40:00,
2013-01-23 06:43:00,6.5,-9.9,30.07,WSW,257,0.0,7.0,46,0.00,,CLR,0.00,0.00,VWS V14.01,2013-01-23 11:43:00,
2013-01-23 06:45:00,6.5,-8.6,30.07,West,280,11.0,11.0,49,0.00,,CLR,0.00,18.00,VWS V14.01,2013-01-23 11:45:00,
2013-01-23 06:48:00,6.5,-9.9,30.07,WSW,243,8.0,10.0,46,0.00,,CLR,0.00,0.00,VWS V14.01,2013-01-23 11:48:00,
2013-01-23 06:50:00,6.7,-8.8,30.07,WSW,253,7.0,10.0,48,0.00,,CLR,0.00,21.00,VWS V14.01,2013-01-23 11:50:00,
2013-01-23 06:53:00,6.5,-9.9,30.07,West,272,5.0,6.0,46,0.00,,CLR,0.00,0.00,VWS V14.01,2013-01-23 11:53:00,
2013-01-23 06:55:00,6.7,-8.4,30.07,West,261,5.0,7.0,49,0.00,,CLR,0.00,32.00,VWS V14.01,2013-01-23 11:55:00,
2013-01-23 06:58:00,6.5,-9.9,30.07,WSW,258,3.0,10.0,46,0.00,,CLR,0.00,0.00,VWS V14.01,2013-01-23 11:58:00,
2013-01-23 07:00:00,6.9,-8.6,30.07,West,274,8.0,8.0,48,0.00,,CLR,0.00,55.00,VWS V14.01,2013-01-23 12:00:00,
2013-01-23 07:03:00,6.3,-9.6,30.07,WSW,256,2.0,5.0,47,0.00,,CLR,0.00,0.00,VWS V14.01,2013-01-23 12:03:00,
2013-01-23 07:05:00,7.0,-8.5,30.07,SW,227,2.0,8.0,48,0.00,,CLR,0.00,77.00,VWS V14.01,2013-01-23 12:05:00,
2013-01-23 07:08:00,6.3,-9.6,30.07,WSW,253,5.0,5.0,47,0.00,,CLR,0.00,0.00,VWS V14.01,2013-01-23 12:08:00,
2013-01-23 07:10:00,7.2,-8.4,30.07,WSW,250,7.0,11.0,48,0.00,,CLR,0.00,93.00,VWS V14.01,2013-01-23 12:10:00,
2013-01-23 07:13:00,6.3,-9.6,30.07,SW,220,0.0,6.0,47,0.00,,CLR,0.00,0.00,VWS V14.01,2013-01-23 12:13:00,
2013-01-23 07:15:00,7.4,-8.2,30.08,WSW,246,6.0,12.0,48,0.00,,CLR,0.00,109.00,VWS V14.01,2013-01-23 12:15:00,
2013-01-23 07:18:00,6.3,-9.2,30.08,SW,230,0.0,7.0,48,0.00,,CLR,0.00,0.00,VWS V14.01,2013-01-23 12:18:00,
2013-01-23 07:20:00,7.4,-8.6,30.08,West,267,10.0,14.0,47,0.00,,CLR,0.00,123.00,VWS V14.01,2013-01-23 12:20:00,
2013-01-23 07:23:00,6.3,-9.2,30.08,West,267,2.0,7.0,48,0.00,,CLR,0.00,0.00,VWS V14.01,2013-01-23 12:23:00,
2013-01-23 07:25:00,7.6,-8.4,30.08,West,281,4.0,7.0,47,0.00,,CLR,0.00,135.00,VWS V14.01,2013-01-23 12:25:00,
2013-01-23 07:28:00,6.3,-9.2,30.08,WSW,243,5.0,5.0,48,0.00,,CLR,0.00,5.00,VWS V14.01,2013-01-23 12:28:00,
2013-01-23 07:30:00,7.7,-8.8,30.08,SW,233,10.0,16.0,46,0.00,,CLR,0.00,146.00,VWS V14.01,2013-01-23 12:30:00,
2013-01-23 07:33:00,6.3,-9.2,30.07,West,280,3.0,5.0,48,0.00,,CLR,0.00,5.00,VWS V14.01,2013-01-23 12:33:00,
2013-01-23 07:35:00,7.9,-8.6,30.08,NW,322,7.0,12.0,46,0.00,,CLR,0.00,153.00,VWS V14.01,2013-01-23 12:35:00,
2013-01-23 07:38:00,6.3,-9.2,30.07,WSW,237,7.0,11.0,48,0.00,,CLR,0.00,7.00,VWS V14.01,2013-01-23 12:38:00,
2013-01-23 07:40:00,8.1,-8.4,30.08,West,280,6.0,12.0,46,0.00,,CLR,0.00,172.00,VWS V14.01,2013-01-23 12:40:00,
2013-01-23 07:43:00,6.5,-9.0,30.07,WNW,282,6.0,11.0,48,0.00,,CLR,0.00,18.00,VWS V14.01,2013-01-23 12:43:00,
2013-01-23 07:45:00,8.3,-8.2,30.08,West,267,3.0,8.0,46,0.00,,CLR,0.00,183.00,VWS V14.01,2013-01-23 12:45:00,
2013-01-23 07:48:00,6.5,-8.6,30.07,SW,224,4.0,6.0,49,0.00,,CLR,0.00,21.00,VWS V14.01,2013-01-23 12:48:00,
2013-01-23 07:50:00,8.6,-7.9,30.08,West,271,5.0,9.0,46,0.00,,CLR,0.00,195.00,VWS V14.01,2013-01-23 12:50:00,
2013-01-23 07:53:00,6.7,-8.8,30.07,West,275,2.0,11.0,48,0.00,,CLR,0.00,23.00,VWS V14.01,2013-01-23 12:53:00,
2013-01-23 07:55:00,9.0,-8.0,30.08,WSW,246,2.0,11.0,45,0.00,,CLR,0.00,208.00,VWS V14.01,2013-01-23 12:55:00,
2013-01-23 07:58:00,6.9,-8.6,30.07,West,264,2.0,7.0,48,0.00,,CLR,0.00,32.00,VWS V14.01,2013-01-23 12:58:00,
2013-01-23 08:00:00,9.0,-8.0,30.08,WSW,254,12.0,14.0,45,0.00,,CLR,0.00,222.00,VWS V14.01,2013-01-23 13:00:00,
2013-01-23 08:03:00,6.9,-8.6,30.07,WSW,247,6.0,10.0,48,0.00,,CLR,0.00,55.00,VWS V14.01,2013-01-23 13:03:00,
2013-01-23 08:05:00,9.0,-7.6,30.08,SW,220,6.0,13.0,46,0.00,,CLR,0.00,234.00,VWS V14.01,2013-01-23 13:05:00,
2013-01-23 08:08:00,7.2,-8.4,30.07,SSW,212,11.0,11.0,48,0.00,,CLR,0.00,88.00,VWS V14.01,2013-01-23 13:08:00,
2013-01-23 08:10:00,9.3,-8.2,30.08,WNW,287,2.0,8.0,44,0.00,,CLR,0.00,245.00,VWS V14.01,2013-01-23 13:10:00,
2013-01-23 08:13:00,7.2,-8.4,30.07,West,260,6.0,10.0,48,0.00,,CLR,0.00,102.00,VWS V14.01,2013-01-23 13:13:00,
2013-01-23 08:15:00,9.3,-8.2,30.09,WSW,246,12.0,12.0,44,0.00,,CLR,0.00,259.00,VWS V14.01,2013-01-23 13:15:00,
2013-01-23 08:18:00,7.4,-8.2,30.08,WSW,248,2.0,8.0,48,0.00,,CLR,0.00,116.00,VWS V14.01,2013-01-23 13:18:00,
2013-01-23 08:20:00,9.5,-8.0,30.09,NW,312,7.0,8.0,44,0.00,,CLR,0.00,266.00,VWS V14.01,2013-01-23 13:20:00,
2013-01-23 08:23:00,7.6,-8.4,30.08,West,263,7.0,10.0,47,0.00,,CLR,0.00,130.00,VWS V14.01,2013-01-23 13:23:00,
2013-01-23 08:25:00,9.9,-8.1,30.09,West,264,10.0,10.0,43,0.00,,CLR,0.00,283.00,VWS V14.01,2013-01-23 13:25:00,
2013-01-23 08:28:00,7.7,-8.3,30.08,WNW,288,5.0,13.0,47,0.00,,CLR,0.00,141.00,VWS V14.01,2013-01-23 13:28:00,
2013-01-23 08:30:00,9.9,-8.1,30.09,SW,233,1.0,7.0,43,0.00,,CLR,0.00,283.00,VWS V14.01,2013-01-23 13:30:00,
2013-01-23 08:33:00,7.9,-8.1,30.08,West,264,11.0,11.0,47,0.00,,CLR,0.00,151.00,VWS V14.01,2013-01-23 13:33:00,
2013-01-23 08:35:00,10.0,-8.5,30.09,NW,311,5.0,9.0,42,0.00,,CLR,0.00,313.00,VWS V14.01,2013-01-23 13:35:00,
2013-01-23 08:38:00,8.1,-8.4,30.08,NW,308,8.0,12.0,46,0.00,,CLR,0.00,165.00,VWS V14.01,2013-01-23 13:38:00,
2013-01-23 08:40:00,10.2,-8.8,30.09,WNW,287,8.0,17.0,41,0.00,,CLR,0.00,324.00,VWS V14.01,2013-01-23 13:40:00,
2013-01-23 08:43:00,8.1,-8.4,30.08,NNW,342,7.0,12.0,46,0.00,,CLR,0.00,178.00,VWS V14.01,2013-01-23 13:43:00,
2013-01-23 08:45:00,10.4,-9.1,30.10,WSW,253,10.0,12.0,40,0.00,,CLR,0.00,341.00,VWS V14.01,2013-01-23 13:45:00,
2013-01-23 08:48:00,8.4,-8.1,30.08,WNW,295,3.0,11.0,46,0.00,,CLR,0.00,190.00,VWS V14.01,2013-01-23 13:48:00,
2013-01-23 08:50:00,10.5,-9.0,30.10,SW,227,4.0,14.0,40,0.00,,CLR,0.00,336.00,VWS V14.01,2013-01-23 13:50:00,
2013-01-23 08:53:00,8.8,-7.7,30.08,West,267,8.0,8.0,46,0.00,,CLR,0.00,202.00,VWS V14.01,2013-01-23 13:53:00,
2013-01-23 08:55:00,10.9,-8.7,30.10,West,274,7.0,7.0,40,0.00,,CLR,0.00,375.00,VWS V14.01,2013-01-23 13:55:00,
2013-01-23 08:58:00,9.0,-8.0,30.08,West,267,8.0,10.0,45,0.00,,CLR,0.00,215.00,VWS V14.01,2013-01-23 13:58:00,
2013-01-23 09:00:00,11.4,-9.3,30.10,NW,304,11.0,12.0,38,0.00,,CLR,0.00,382.00,VWS V14.01,2013-01-23 14:00:00,
2013-01-23 09:03:00,8.8,-8.2,30.08,WNW,285,8.0,13.0,45,0.00,,CLR,0.00,223.00,VWS V14.01,2013-01-23 14:03:00,
2013-01-23 09:05:00,11.2,-9.4,30.10,WNW,296,7.0,12.0,38,0.00,,CLR,0.00,143.00,VWS V14.01,2013-01-23 14:05:00,
2013-01-23 09:08:00,9.2,-7.8,30.08,WNW,287,5.0,11.0,45,0.00,,CLR,0.00,239.00,VWS V14.01,2013-01-23 14:08:00,
2013-01-23 09:10:00,11.1,-9.5,30.10,WSW,253,14.0,14.0,38,0.00,,CLR,0.00,391.00,VWS V14.01,2013-01-23 14:10:00,
2013-01-23 09:13:00,9.3,-8.2,30.08,NW,312,9.0,14.0,44,0.00,,CLR,0.00,252.00,VWS V14.01,2013-01-23 14:13:00,
2013-01-23 09:15:00,10.9,-10.3,30.10,West,270,11.0,14.0,37,0.00,,CLR,0.00,77.00,VWS V14.01,2013-01-23 14:15:00,
2013-01-23 09:18:00,9.3,-8.2,30.09,NW,306,3.0,11.0,44,0.00,,CLR,0.00,260.00,VWS V14.01,2013-01-23 14:18:00,
2013-01-23 09:20:00,10.9,-10.8,30.10,West,261,13.0,14.0,36,0.00,,CLR,0.00,79.00,VWS V14.01,2013-01-23 14:20:00,
2013-01-23 09:23:00,9.7,-8.3,30.09,West,264,6.0,16.0,43,0.00,,CLR,0.00,273.00,VWS V14.01,2013-01-23 14:23:00,
2013-01-23 09:25:00,10.7,-11.0,30.10,West,275,4.0,13.0,36,0.00,,CLR,0.00,100.00,VWS V14.01,2013-01-23 14:25:00,
2013-01-23 09:28:00,9.9,-8.1,30.09,NW,322,2.0,12.0,43,0.00,,CLR,0.00,289.00,VWS V14.01,2013-01-23 14:28:00,
2013-01-23 09:30:00,10.7,-11.6,30.10,WNW,295,12.0,13.0,35,0.00,,CLR,0.00,76.00,VWS V14.01,2013-01-23 14:30:00,
2013-01-23 09:33:00,10.0,-8.5,30.09,West,277,6.0,17.0,42,0.00,,CLR,0.00,303.00,VWS V14.01,2013-01-23 14:33:00,
2013-01-23 09:35:00,10.7,-11.0,30.10,WNW,294,3.0,10.0,36,0.00,,CLR,0.00,428.00,VWS V14.01,2013-01-23 14:35:00,
2013-01-23 09:38:00,10.2,-8.3,30.09,WNW,284,4.0,10.0,42,0.00,,CLR,0.00,46.00,VWS V14.01,2013-01-23 14:38:00,
2013-01-23 09:40:00,10.9,-10.8,30.10,WSW,246,11.0,11.0,36,0.00,,CLR,0.00,81.00,VWS V14.01,2013-01-23 14:40:00,
2013-01-23 09:43:00,10.2,-8.8,30.09,NW,312,0.0,13.0,41,0.00,,CLR,0.00,324.00,VWS V14.01,2013-01-23 14:43:00,
2013-01-23 09:45:00,11.1,-11.2,30.10,North,354,4.0,11.0,35,0.00,,CLR,0.00,63.00,VWS V14.01,2013-01-23 14:45:00,
2013-01-23 09:48:00,10.5,-9.0,30.10,WSW,237,8.0,12.0,40,0.00,,CLR,0.00,343.00,VWS V14.01,2013-01-23 14:48:00,
2013-01-23 09:53:00,10.7,-8.9,30.10,WSW,247,5.0,7.0,40,0.00,,CLR,0.00,361.00,VWS V14.01,2013-01-23 14:53:00,
2013-01-23 09:55:00,12.1,-9.7,30.10,WNW,287,8.0,11.0,36,0.00,,CLR,0.00,486.00,VWS V14.01,2013-01-23 14:55:00,
2013-01-23 09:58:00,11.2,-8.9,30.10,NW,311,5.0,11.0,39,0.00,,CLR,0.00,378.00,VWS V14.01,2013-01-23 14:58:00,
2013-01-23 10:00:00,12.4,-10.6,30.09,NW,311,10.0,11.0,34,0.00,,CLR,0.00,570.00,VWS V14.01,2013-01-23 15:00:00,
2013-01-23 10:03:00,11.4,-9.3,30.10,North,0,4.0,11.0,38,0.00,,CLR,0.00,67.00,VWS V14.01,2013-01-23 15:03:00,
2013-01-23 10:05:00,12.9,-10.2,30.09,West,272,6.0,14.0,34,0.00,,CLR,0.00,510.00,VWS V14.01,2013-01-23 15:05:00,
2013-01-23 10:08:00,11.2,-10.0,30.10,North,0,4.0,7.0,37,0.00,,CLR,0.00,391.00,VWS V14.01,2013-01-23 15:08:00,
2013-01-23 10:10:00,12.8,-10.9,30.09,NNW,337,6.0,12.0,33,0.00,,CLR,0.00,134.00,VWS V14.01,2013-01-23 15:10:00,
2013-01-23 10:13:00,11.1,-10.1,30.10,West,271,11.0,14.0,37,0.00,,CLR,0.00,77.00,VWS V14.01,2013-01-23 15:13:00,
2013-01-23 10:15:00,11.9,-11.7,30.08,NNW,328,6.0,17.0,33,0.00,,CLR,0.00,179.00,VWS V14.01,2013-01-23 15:15:00,
2013-01-23 10:18:00,10.9,-10.3,30.10,WNW,294,6.0,12.0,37,0.00,,CLR,0.00,86.00,VWS V14.01,2013-01-23 15:18:00,
2013-01-23 10:20:00,12.1,-12.1,30.08,NW,312,17.0,17.0,32,0.00,,CLR,0.00,171.00,VWS V14.01,2013-01-23 15:20:00,
2013-01-23 10:23:00,10.7,-11.0,30.10,WNW,291,11.0,17.0,36,0.00,,CLR,0.00,74.00,VWS V14.01,2013-01-23 15:23:00,
2013-01-23 10:25:00,11.7,-12.4,30.08,SW,232,13.0,14.0,32,0.00,,CLR,0.00,139.00,VWS V14.01,2013-01-23 15:25:00,
2013-01-23 10:28:00,10.7,-11.0,30.10,West,261,9.0,9.0,36,0.00,,CLR,0.00,100.00,VWS V14.01,2013-01-23 15:28:00,
2013-01-23 10:30:00,11.9,-12.3,30.08,WNW,284,7.0,14.0,32,0.00,,CLR,0.00,435.00,VWS V14.01,2013-01-23 15:30:00,
2013-01-23 10:33:00,10.7,-11.0,30.10,West,260,7.0,11.0,36,0.00,,CLR,0.00,77.00,VWS V14.01,2013-01-23 15:33:00,
2013-01-23 10:35:00,12.1,-10.9,30.08,West,270,13.0,14.0,34,0.00,,CLR,0.00,524.00,VWS V14.01,2013-01-23 15:35:00,
2013-01-23 10:38:00,10.9,-11.4,30.10,WNW,284,5.0,12.0,35,0.00,,CLR,0.00,76.00,VWS V14.01,2013-01-23 15:38:00,
2013-01-23 10:40:00,12.3,-11.3,30.08,WSW,250,14.0,20.0,33,0.00,,CLR,0.00,582.00,VWS V14.01,2013-01-23 15:40:00,
2013-01-23 10:43:00,11.1,-11.2,30.10,West,261,8.0,12.0,35,0.00,,CLR,0.00,81.00,VWS V14.01,2013-01-23 15:43:00,
2013-01-23 10:45:00,12.6,-12.3,30.07,SSW,212,5.0,11.0,31,0.00,,CLR,0.00,596.00,VWS V14.01,2013-01-23 15:45:00,
2013-01-23 10:48:00,11.2,-11.7,30.10,West,271,9.0,12.0,34,0.00,,CLR,0.00,468.00,VWS V14.01,2013-01-23 15:48:00,
2013-01-23 10:50:00,12.9,-10.8,30.07,NNW,329,2.0,11.0,33,0.00,,CLR,0.00,257.00,VWS V14.01,2013-01-23 15:50:00,
2013-01-23 10:53:00,11.6,-10.2,30.10,NW,313,1.0,11.0,36,0.00,,CLR,0.00,468.00,VWS V14.01,2013-01-23 15:53:00,
2013-01-23 10:55:00,12.9,-12.0,30.07,West,271,3.0,13.0,31,0.00,,CLR,0.00,282.00,VWS V14.01,2013-01-23 15:55:00,
2013-01-23 10:58:00,12.3,-10.7,30.10,WNW,287,10.0,10.0,34,0.00,,CLR,0.00,521.00,VWS V14.01,2013-01-23 15:58:00,
2013-01-23 11:00:00,12.6,-11.7,30.06,WNW,287,11.0,13.0,32,0.00,,CLR,0.00,262.00,VWS V14.01,2013-01-23 16:00:00,
2013-01-23 11:03:00,12.8,-10.9,30.09,NNW,335,0.0,12.0,33,0.00,,FEW050,0.00,567.00,VWS V14.01,2013-01-23 16:03:00,
2013-01-23 11:05:00,12.9,-11.4,30.06,WSW,258,7.0,8.0,32,0.00,,CLR,0.00,216.00,VWS V14.01,2013-01-23 16:05:00,
2013-01-23 11:08:00,12.9,-12.0,30.09,NNW,330,5.0,7.0,31,0.00,,FEW050,0.00,465.00,VWS V14.01,2013-01-23 16:08:00,
2013-01-23 11:10:00,13.3,-11.7,30.06,West,270,10.0,13.0,31,0.00,,CLR,0.00,239.00,VWS V14.01,2013-01-23 16:10:00,
2013-01-23 11:13:00,12.3,-11.9,30.09,NW,311,8.0,13.0,32,0.00,,FEW050,0.00,137.00,VWS V14.01,2013-01-23 16:13:00,
2013-01-23 11:15:00,12.8,-10.3,30.05,NNW,328,7.0,9.0,34,0.00,,CLR,0.00,220.00,VWS V14.01,2013-01-23 16:15:00,
2013-01-23 11:18:00,11.9,-11.7,30.08,West,272,8.0,10.0,33,0.00,,FEW050,0.00,171.00,VWS V14.01,2013-01-23 16:18:00,
2013-01-23 11:20:00,13.1,-10.0,30.05,WSW,248,4.0,11.0,34,0.00,,CLR,0.00,426.00,VWS V14.01,2013-01-23 16:20:00,
2013-01-23 11:23:00,11.9,-12.9,30.08,West,275,6.0,13.0,31,0.00,,FEW050,0.00,139.00,VWS V14.01,2013-01-23 16:23:00,
2013-01-23 11:25:00,13.5,-10.9,30.05,WSW,244,5.0,12.0,32,0.00,,CLR,0.00,222.00,VWS V14.01,2013-01-23 16:25:00,
2013-01-23 11:28:00,11.9,-12.3,30.08,WSW,251,10.0,13.0,32,0.00,,FEW050,0.00,391.00,VWS V14.01,2013-01-23 16:28:00,
2013-01-23 11:30:00,13.5,-10.9,30.04,SW,232,0.0,11.0,32,0.00,,CLR,0.00,413.00,VWS V14.01,2013-01-23 16:30:00,
2013-01-23 11:33:00,11.9,-12.3,30.08,West,274,13.0,13.0,32,0.00,,FEW050,0.00,435.00,VWS V14.01,2013-01-23 16:33:00,
2013-01-23 11:35:00,13.8,-11.9,30.04,North,350,6.0,13.0,30,0.00,,CLR,0.00,449.00,VWS V14.01,2013-01-23 16:35:00,
2013-01-23 11:38:00,12.3,-11.9,30.08,West,267,10.0,14.0,32,0.00,,FEW050,0.00,560.00,VWS V14.01,2013-01-23 16:38:00,
2013-01-23 11:40:00,14.3,-12.8,30.04,West,267,2.0,11.0,28,0.00,,CLR,0.00,456.00,VWS V14.01,2013-01-23 16:40:00,
2013-01-23 11:43:00,12.4,-11.2,30.08,North,356,7.0,12.0,33,0.00,,FEW050,0.00,178.00,VWS V14.01,2013-01-23 16:43:00,
2013-01-23 11:45:00,14.1,-13.7,30.04,NW,326,8.0,13.0,27,0.00,,CLR,0.00,406.00,VWS V14.01,2013-01-23 16:45:00,
2013-01-23 11:48:00,12.6,-11.7,30.07,West,265,11.0,16.0,32,0.00,,FEW050,0.00,596.00,VWS V14.01,2013-01-23 16:48:00,
2013-01-23 11:50:00,14.3,-13.6,30.04,WNW,282,12.0,12.0,27,0.00,,CLR,0.00,130.00,VWS V14.01,2013-01-23 16:50:00,
2013-01-23 11:53:00,12.9,-12.0,30.07,SSW,193,5.0,11.0,31,0.00,,FEW050,0.00,266.00,VWS V14.01,2013-01-23 16:53:00,
2013-01-23 11:55:00,14.0,-15.3,30.04,NNW,346,4.0,14.0,25,0.00,,CLR,0.00,120.00,VWS V14.01,2013-01-23 16:55:00,
2013-01-23 11:58:00,12.6,-12.3,30.07,SSW,213,8.0,20.0,31,0.00,,FEW050,0.00,262.00,VWS V14.01,2013-01-23 16:58:00,
2013-01-23 12:00:00,13.5,-15.8,30.03,North,356,8.0,14.0,25,0.00,,CLR,0.00,100.00,VWS V14.01,2013-01-23 17:00:00,
2013-01-23 12:03:00,12.8,-11.5,30.06,West,267,3.0,11.0,32,0.00,,OVC050,0.00,262.00,VWS V14.01,2013-01-23 17:03:00,
2013-01-23 12:05:00,13.3,-15.2,30.03,WSW,256,14.0,14.0,26,0.00,,CLR,0.00,135.00,VWS V14.01,2013-01-23 17:05:00,
2013-01-23 12:08:00,12.9,-12.0,30.06,WNW,299,1.0,10.0,31,0.00,,OVC050,0.00,287.00,VWS V14.01,2013-01-23 17:08:00,
2013-01-23 12:10:00,13.5,-14.2,30.03,WNW,291,2.0,7.0,27,0.00,,CLR,0.00,116.00,VWS V14.01,2013-01-23 17:10:00,
2013-01-23 12:13:00,13.1,-10.6,30.06,NNW,347,10.0,12.0,33,0.00,,OVC050,0.00,239.00,VWS V14.01,2013-01-23 17:13:00,
2013-01-23 12:15:00,13.5,-15.0,30.03,West,280,5.0,12.0,26,0.00,,CLR,0.00,120.00,VWS V14.01,2013-01-23 17:15:00,
2013-01-23 12:18:00,12.8,-10.3,30.05,WNW,282,1.0,7.0,34,0.00,,OVC050,0.00,435.00,VWS V14.01,2013-01-23 17:18:00,
2013-01-23 12:20:00,13.3,-15.2,30.03,West,261,13.0,17.0,26,0.00,,CLR,0.00,137.00,VWS V14.01,2013-01-23 17:20:00,
2013-01-23 12:23:00,13.5,-9.6,30.05,West,270,5.0,8.0,34,0.00,,OVC050,0.00,222.00,VWS V14.01,2013-01-23 17:23:00,
2013-01-23 12:25:00,13.5,-15.8,30.03,WSW,251,6.0,8.0,25,0.00,,CLR,0.00,167.00,VWS V14.01,2013-01-23 17:25:00,
2013-01-23 12:28:00,13.5,-11.5,30.05,WSW,251,10.0,12.0,31,0.00,,OVC050,0.00,222.00,VWS V14.01,2013-01-23 17:28:00,
2013-01-23 12:30:00,13.8,-14.0,30.02,WNW,288,5.0,5.0,27,0.00,,CLR,0.00,183.00,VWS V14.01,2013-01-23 17:30:00,
2013-01-23 12:33:00,13.6,-11.4,30.04,North,0,6.0,11.0,31,0.00,,OVC050,0.00,352.00,VWS V14.01,2013-01-23 17:33:00,
2013-01-23 12:35:00,14.4,-15.0,30.02,West,274,3.0,12.0,25,0.00,,CLR,0.00,463.00,VWS V14.01,2013-01-23 17:35:00,
2013-01-23 12:38:00,14.1,-12.3,30.04,West,280,7.0,7.0,29,0.00,,OVC050,0.00,449.00,VWS V14.01,2013-01-23 17:38:00,
2013-01-23 12:40:00,14.4,-15.0,30.02,WSW,250,7.0,15.0,25,0.00,,CLR,0.00,463.00,VWS V14.01,2013-01-23 17:40:00,
2013-01-23 12:43:00,14.3,-12.8,30.04,North,359,8.0,13.0,28,0.00,,OVC050,0.00,417.00,VWS V14.01,2013-01-23 17:43:00,
2013-01-23 12:45:00,14.3,-15.1,30.02,WSW,239,7.0,12.0,25,0.00,,CLR,0.00,215.00,VWS V14.01,2013-01-23 17:45:00,
2013-01-23 12:48:00,14.1,-13.0,30.04,North,0,4.0,10.0,28,0.00,,OVC050,0.00,384.00,VWS V14.01,2013-01-23 17:48:00,
2013-01-23 12:50:00,14.1,-15.2,30.02,WSW,250,3.0,12.0,25,0.00,,CLR,0.00,151.00,VWS V14.01,2013-01-23 17:50:00,
2013-01-23 12:53:00,14.1,-14.5,30.04,WNW,295,2.0,12.0,26,0.00,,OVC050,0.00,551.00,VWS V14.01,2013-01-23 17:53:00,
2013-01-23 12:55:00,14.1,-15.2,30.02,West,272,9.0,14.0,25,0.00,,CLR,0.00,151.00,VWS V14.01,2013-01-23 17:55:00,
2013-01-23 12:58:00,13.8,-14.7,30.04,NW,312,3.0,8.0,26,0.00,,OVC050,0.00,102.00,VWS V14.01,2013-01-23 17:58:00,
2013-01-23 13:00:00,14.1,-15.2,30.02,West,268,2.0,14.0,25,0.00,,CLR,0.00,120.00,VWS V14.01,2013-01-23 18:00:00,
2013-01-23 13:03:00,13.3,-15.2,30.03,NW,316,2.0,18.0,26,0.00,,OVC055,0.00,118.00,VWS V14.01,2013-01-23 18:03:00,
2013-01-23 13:05:00,14.0,-14.6,30.02,North,359,3.0,10.0,26,0.00,,CLR,0.00,99.00,VWS V14.01,2013-01-23 18:05:00,
2013-01-23 13:08:00,13.3,-15.2,30.03,NW,322,4.0,8.0,26,0.00,,OVC055,0.00,104.00,VWS V14.01,2013-01-23 18:08:00,
2013-01-23 13:10:00,13.8,-15.5,30.02,WNW,296,3.0,12.0,25,0.00,,CLR,0.00,113.00,VWS V14.01,2013-01-23 18:10:00,
2013-01-23 13:13:00,13.5,-14.2,30.03,West,278,6.0,10.0,27,0.00,,OVC055,0.00,111.00,VWS V14.01,2013-01-23 18:13:00,
2013-01-23 13:15:00,13.8,-15.5,30.02,West,278,0.0,11.0,25,0.00,,CLR,0.00,99.00,VWS V14.01,2013-01-23 18:15:00,
2013-01-23 13:18:00,13.5,-15.0,30.03,West,263,6.0,13.0,26,0.00,,OVC055,0.00,127.00,VWS V14.01,2013-01-23 18:18:00,
2013-01-23 13:20:00,13.8,-16.3,30.02,NW,312,1.0,14.0,24,0.00,,CLR,0.00,97.00,VWS V14.01,2013-01-23 18:20:00,
2013-01-23 13:23:00,13.3,-15.2,30.03,NW,325,6.0,10.0,26,0.00,,OVC055,0.00,148.00,VWS V14.01,2013-01-23 18:23:00,
2013-01-23 13:25:00,13.6,-15.7,30.02,WNW,301,7.0,13.0,25,0.00,,CLR,0.00,118.00,VWS V14.01,2013-01-23 18:25:00,
2013-01-23 13:28:00,13.6,-14.9,30.03,NNW,336,3.0,11.0,26,0.00,,OVC055,0.00,167.00,VWS V14.01,2013-01-23 18:28:00,
2013-01-23 13:30:00,13.8,-15.5,30.02,NW,312,0.0,9.0,25,0.00,,CLR,0.00,102.00,VWS V14.01,2013-01-23 18:30:00,
2013-01-23 13:33:00,14.1,-14.5,30.02,WNW,291,2.0,11.0,26,0.00,,OVC055,0.00,398.00,VWS V14.01,2013-01-23 18:33:00,
2013-01-23 13:35:00,14.0,-15.3,30.02,North,352,3.0,13.0,25,0.00,,CLR,0.00,102.00,VWS V14.01,2013-01-23 18:35:00,
2013-01-23 13:38:00,14.6,-14.8,30.02,WNW,298,7.0,14.0,25,0.00,,OVC055,0.00,204.00,VWS V14.01,2013-01-23 18:38:00,
2013-01-23 13:40:00,13.8,-16.3,30.02,West,265,6.0,13.0,24,0.00,,CLR,0.00,143.00,VWS V14.01,2013-01-23 18:40:00,
2013-01-23 13:43:00,14.4,-15.0,30.02,WNW,298,11.0,11.0,25,0.00,,OVC055,0.00,134.00,VWS V14.01,2013-01-23 18:43:00,
2013-01-23 13:45:00,14.0,-14.6,30.03,NNW,344,1.0,7.0,26,0.00,,CLR,0.00,134.00,VWS V14.01,2013-01-23 18:45:00,
2013-01-23 13:48:00,14.4,-14.2,30.02,SW,233,11.0,11.0,26,0.00,,OVC055,0.00,187.00,VWS V14.01,2013-01-23 18:48:00,
2013-01-23 13:50:00,14.0,-15.3,30.03,WNW,291,5.0,11.0,25,0.00,,CLR,0.00,62.00,VWS V14.01,2013-01-23 18:50:00,
2013-01-23 13:53:00,14.1,-15.2,30.02,NW,312,3.0,9.0,25,0.00,,OVC055,0.00,151.00,VWS V14.01,2013-01-23 18:53:00,
2013-01-23 13:55:00,13.8,-15.5,30.03,NW,312,6.0,11.0,25,0.00,,CLR,0.00,65.00,VWS V14.01,2013-01-23 18:55:00,
2013-01-23 13:58:00,14.1,-14.5,30.02,NW,322,5.0,8.0,26,0.00,,OVC055,0.00,151.00,VWS V14.01,2013-01-23 18:58:00,
2013-01-23 14:00:00,13.6,-15.7,30.03,WNW,291,2.0,8.0,25,0.00,,CLR,0.00,67.00,VWS V14.01,2013-01-23 19:00:00,
2013-01-23 14:03:00,14.0,-14.6,30.02,NNW,333,0.0,10.0,26,0.00,,OVC055,0.00,111.00,VWS V14.01,2013-01-23 19:03:00,
2013-01-23 14:05:00,13.6,-14.9,30.03,West,274,11.0,13.0,26,0.00,,CLR,0.00,76.00,VWS V14.01,2013-01-23 19:05:00,
2013-01-23 14:08:00,14.0,-15.3,30.02,WNW,282,10.0,11.0,25,0.00,,OVC055,0.00,139.00,VWS V14.01,2013-01-23 19:08:00,
2013-01-23 14:10:00,13.5,-15.0,30.03,WSW,258,11.0,12.0,26,0.00,,CLR,0.00,67.00,VWS V14.01,2013-01-23 19:10:00,
2013-01-23 14:13:00,13.8,-16.3,30.02,WNW,299,13.0,13.0,24,0.00,,OVC055,0.00,113.00,VWS V14.01,2013-01-23 19:13:00,
2013-01-23 14:15:00,13.6,-14.2,30.04,WSW,251,6.0,9.0,27,0.00,,CLR,0.00,69.00,VWS V14.01,2013-01-23 19:15:00,
2013-01-23 14:18:00,13.8,-15.5,30.02,WNW,285,2.0,12.0,25,0.00,,OVC055,0.00,95.00,VWS V14.01,2013-01-23 19:18:00,
2013-01-23 14:20:00,13.5,-14.2,30.04,WNW,282,11.0,13.0,27,0.00,,CLR,0.00,55.00,VWS V14.01,2013-01-23 19:20:00,
2013-01-23 14:23:00,13.8,-15.5,30.02,WSW,250,7.0,10.0,25,0.00,,OVC055,0.00,99.00,VWS V14.01,2013-01-23 19:23:00,
2013-01-23 14:25:00,13.5,-13.5,30.04,WSW,253,3.0,10.0,28,0.00,,CLR,0.00,46.00,VWS V14.01,2013-01-23 19:25:00,
2013-01-23 14:28:00,13.8,-14.7,30.02,West,278,3.0,8.0,26,0.00,,OVC055,0.00,120.00,VWS V14.01,2013-01-23 19:28:00,
2013-01-23 14:30:00,13.6,-13.4,30.04,West,277,0.0,5.0,28,0.00,,CLR,0.00,51.00,VWS V14.01,2013-01-23 19:30:00,
2013-01-23 14:33:00,14.0,-15.3,30.02,WNW,291,5.0,7.0,25,0.00,,OVC055,0.00,104.00,VWS V14.01,2013-01-23 19:33:00,
2013-01-23 14:35:00,13.8,-14.0,30.04,WNW,298,1.0,2.0,27,0.00,,CLR,0.00,100.00,VWS V14.01,2013-01-23 19:35:00,
2013-01-23 14:38:00,14.0,-15.3,30.02,WSW,244,11.0,11.0,25,0.00,,OVC055,0.00,100.00,VWS V14.01,2013-01-23 19:38:00,
2013-01-23 14:40:00,14.0,-13.1,30.04,NW,311,4.0,9.0,28,0.00,,CLR,0.00,125.00,VWS V14.01,2013-01-23 19:40:00,
2013-01-23 14:43:00,13.8,-15.5,30.02,NW,306,10.0,10.0,25,0.00,,OVC055,0.00,143.00,VWS V14.01,2013-01-23 19:43:00,
2013-01-23 14:45:00,14.0,-13.1,30.03,NW,304,3.0,11.0,28,0.00,,CLR,0.00,158.00,VWS V14.01,2013-01-23 19:45:00,
2013-01-23 14:48:00,14.0,-14.6,30.03,NW,323,1.0,7.0,26,0.00,,OVC055,0.00,63.00,VWS V14.01,2013-01-23 19:48:00,
2013-01-23 14:50:00,14.1,-13.7,30.03,WNW,296,2.0,7.0,27,0.00,,CLR,0.00,215.00,VWS V14.01,2013-01-23 19:50:00,
2013-01-23 14:53:00,13.8,-15.5,30.03,NW,304,6.0,7.0,25,0.00,,OVC055,0.00,63.00,VWS V14.01,2013-01-23 19:53:00,
2013-01-23 14:55:00,14.4,-12.7,30.03,West,263,5.0,9.0,28,0.00,,CLR,0.00,188.00,VWS V14.01,2013-01-23 19:55:00,
2013-01-23 14:58:00,13.8,-15.5,30.03,SW,227,3.0,13.0,25,0.00,,OVC055,0.00,69.00,VWS V14.01,2013-01-23 19:58:00,
2013-01-23 15:00:00,14.4,-12.7,30.03,WNW,289,1.0,8.0,28,0.00,,CLR,0.00,81.00,VWS V14.01,2013-01-23 20:00:00,
2013-01-23 15:03:00,13.6,-15.7,30.03,WNW,288,7.0,15.0,25,0.00,,BKN060,0.00,69.00,VWS V14.01,2013-01-23 20:03:00,
2013-01-23 15:05:00,14.3,-12.8,30.03,NNW,330,5.0,7.0,28,0.00,,CLR,0.00,88.00,VWS V14.01,2013-01-23 20:05:00,
2013-01-23 15:08:00,13.6,-14.9,30.03,WSW,240,13.0,14.0,26,0.00,,BKN060,0.00,77.00,VWS V14.01,2013-01-23 20:08:00,
2013-01-23 15:10:00,14.1,-13.7,30.03,WSW,248,12.0,16.0,27,0.00,,CLR,0.00,67.00,VWS V14.01,2013-01-23 20:10:00,
2013-01-23 15:13:00,13.5,-15.0,30.03,West,268,2.0,9.0,26,0.00,,BKN060,0.00,65.00,VWS V14.01,2013-01-23 20:13:00,
2013-01-23 15:18:00,13.6,-14.2,30.04,WSW,246,10.0,12.0,27,0.00,,BKN060,0.00,65.00,VWS V14.01,2013-01-23 20:18:00,
2013-01-23 15:20:00,13.6,-14.2,30.03,WNW,284,2.0,10.0,27,0.00,,CLR,0.00,30.00,VWS V14.01,2013-01-23 20:20:00,
2013-01-23 15:23:00,13.5,-13.5,30.04,West,277,3.0,10.0,28,0.00,,BKN060,0.00,65.00,VWS V14.01,2013-01-23 20:23:00,
2013-01-23 15:28:00,13.5,-13.5,30.04,NW,322,1.0,11.0,28,0.00,,BKN060,0.00,46.00,VWS V14.01,2013-01-23 20:28:00,
2013-01-23 15:30:00,13.5,-14.2,30.04,West,263,10.0,13.0,27,0.00,,CLR,0.00,33.00,VWS V14.01,2013-01-23 20:30:00,
2013-01-23 15:33:00,13.6,-13.4,30.04,West,270,2.0,9.0,28,0.00,,BKN060,0.00,58.00,VWS V14.01,2013-01-23 20:33:00,
2013-01-23 15:35:00,13.3,-13.0,30.04,WSW,254,6.0,10.0,29,0.00,,CLR,0.00,19.00,VWS V14.01,2013-01-23 20:35:00,
2013-01-23 15:38:00,13.8,-13.3,30.04,WNW,302,0.0,6.0,28,0.00,,BKN060,0.00,176.00,VWS V14.01,2013-01-23 20:38:00,
2013-01-23 15:40:00,13.1,-12.5,30.04,WNW,282,10.0,12.0,30,0.00,,CLR,0.00,12.00,VWS V14.01,2013-01-23 20:40:00,
2013-01-23 15:43:00,14.0,-13.8,30.04,NNW,332,10.0,12.0,27,0.00,,BKN060,0.00,109.00,VWS V14.01,2013-01-23 20:43:00,
2013-01-23 15:45:00,13.1,-11.9,30.04,West,265,5.0,7.0,31,0.00,,CLR,0.00,12.00,VWS V14.01,2013-01-23 20:45:00,
2013-01-23 15:48:00,14.0,-13.1,30.03,NW,322,0.0,6.0,28,0.00,,BKN060,0.00,201.00,VWS V14.01,2013-01-23 20:48:00,
2013-01-23 15:50:00,12.9,-12.0,30.04,West,274,4.0,11.0,31,0.00,,CLR,0.00,9.00,VWS V14.01,2013-01-23 20:50:00,
2013-01-23 15:53:00,14.3,-13.6,30.03,NW,315,5.0,11.0,27,0.00,,BKN060,0.00,208.00,VWS V14.01,2013-01-23 20:53:00,
2013-01-23 15:55:00,12.8,-11.5,30.04,WSW,256,2.0,11.0,32,0.00,,CLR,0.00,5.00,VWS V14.01,2013-01-23 20:55:00,
2013-01-23 15:58:00,14.4,-12.7,30.03,West,260,5.0,9.0,28,0.00,,BKN060,0.00,179.00,VWS V14.01,2013-01-23 20:58:00,
2013-01-23 16:00:00,12.6,-9.9,30.04,West,280,7.0,11.0,35,0.00,,CLR,0.00,0.00,VWS V14.01,2013-01-23 21:00:00,
2013-01-23 16:03:00,14.3,-13.6,30.03,WSW,257,5.0,11.0,27,0.00,,OVC055,0.00,81.00,VWS V14.01,2013-01-23 21:03:00,
2013-01-23 16:05:00,12.6,-9.3,30.04,SW,232,3.0,7.0,36,0.00,,CLR,0.00,0.00,VWS V14.01,2013-01-23 21:05:00,
2013-01-23 16:08:00,14.1,-13.7,30.03,West,261,6.0,8.0,27,0.00,,OVC055,0.00,86.00,VWS V14.01,2013-01-23 21:08:00,
2013-01-23 16:10:00,12.4,-8.9,30.04,WSW,251,1.0,6.0,37,0.00,,CLR,0.00,0.00,VWS V14.01,2013-01-23 21:10:00,
2013-01-23 16:13:00,14.0,-13.8,30.03,NW,305,8.0,12.0,27,0.00,,OVC055,0.00,55.00,VWS V14.01,2013-01-23 21:13:00,
2013-01-23 16:15:00,12.3,-8.4,30.04,West,277,0.0,3.0,38,0.00,,CLR,0.00,0.00,VWS V14.01,2013-01-23 21:15:00,
2013-01-23 16:18:00,13.8,-14.0,30.03,West,270,7.0,11.0,27,0.00,,OVC055,0.00,32.00,VWS V14.01,2013-01-23 21:18:00,
2013-01-23 16:20:00,12.3,-8.4,30.04,SSW,203,0.0,3.0,38,0.00,,CLR,0.00,0.00,VWS V14.01,2013-01-23 21:20:00,
2013-01-23 16:23:00,13.6,-14.2,30.03,WSW,240,10.0,13.0,27,0.00,,OVC055,0.00,33.00,VWS V14.01,2013-01-23 21:23:00,
2013-01-23 16:25:00,12.1,-8.6,30.04,WSW,250,2.0,6.0,38,0.00,,CLR,0.00,0.00,VWS V14.01,2013-01-23 21:25:00,
2013-01-23 16:28:00,13.5,-13.5,30.03,SW,234,4.0,12.0,28,0.00,,OVC055,0.00,35.00,VWS V14.01,2013-01-23 21:28:00,
2013-01-23 16:30:00,12.1,-8.6,30.04,NW,308,2.0,8.0,38,0.00,,CLR,0.00,0.00,VWS V14.01,2013-01-23 21:30:00,
2013-01-23 16:33:00,13.5,-13.5,30.04,WSW,240,6.0,12.0,28,0.00,,OVC055,0.00,19.00,VWS V14.01,2013-01-23 21:33:00,
2013-01-23 16:35:00,12.1,-8.1,30.04,WSW,251,1.0,7.0,39,0.00,,CLR,0.00,0.00,VWS V14.01,2013-01-23 21:35:00,
2013-01-23 16:38:00,13.1,-12.5,30.04,West,268,2.0,6.0,30,0.00,,OVC055,0.00,14.00,VWS V14.01,2013-01-23 21:38:00,
2013-01-23 16:40:00,12.1,-8.1,30.04,WNW,291,0.0,3.0,39,0.00,,CLR,0.00,0.00,VWS V14.01,2013-01-23 21:40:00,
2013-01-23 16:43:00,13.1,-12.5,30.04,NW,325,1.0,9.0,30,0.00,,OVC055,0.00,12.00,VWS V14.01,2013-01-23 21:43:00,
2013-01-23 16:45:00,11.9,-7.8,30.05,WNW,287,2.0,6.0,40,0.00,,CLR,0.00,0.00,VWS V14.01,2013-01-23 21:45:00,
2013-01-23 16:48:00,12.9,-12.0,30.04,WNW,292,10.0,10.0,31,0.00,,OVC055,0.00,12.00,VWS V14.01,2013-01-23 21:48:00,
2013-01-23 16:50:00,11.9,-7.8,30.05,WNW,287,0.0,0.0,40,0.00,,CLR,0.00,0.00,VWS V14.01,2013-01-23 21:50:00,
2013-01-23 16:53:00,12.9,-11.4,30.04,NW,306,7.0,11.0,32,0.00,,OVC055,0.00,9.00,VWS V14.01,2013-01-23 21:53:00,
2013-01-23 16:55:00,11.9,-7.8,30.05,WNW,287,0.0,2.0,40,0.00,,CLR,0.00,0.00,VWS V14.01,2013-01-23 21:55:00,
2013-01-23 16:58:00,12.8,-11.5,30.04,NNW,330,5.0,6.0,32,0.00,,OVC055,0.00,0.00,VWS V14.01,2013-01-23 21:58:00,
2013-01-23 17:00:00,11.7,-7.4,30.05,WSW,256,0.0,2.0,41,0.00,,CLR,0.00,0.00,VWS V14.01,2013-01-23 22:00:00,
2013-01-23 17:03:00,12.6,-9.9,30.04,SW,232,3.0,8.0,35,0.00,,BKN060,0.00,0.00,VWS V14.01,2013-01-23 22:03:00,
2013-01-23 17:05:00,11.7,-7.4,30.05,WSW,256,0.0,0.0,41,0.00,,CLR,0.00,0.00,VWS V14.01,2013-01-23 22:05:00,
2013-01-23 17:08:00,12.4,-9.5,30.04,WSW,258,2.0,6.0,36,0.00,,BKN060,0.00,0.00,VWS V14.01,2013-01-23 22:08:00,
2013-01-23 17:10:00,11.6,-7.5,30.05,WSW,256,0.0,0.0,41,0.00,,CLR,0.00,0.00,VWS V14.01,2013-01-23 22:10:00,
2013-01-23 17:13:00,12.3,-9.0,30.04,WNW,294,3.0,7.0,37,0.00,,BKN060,0.00,0.00,VWS V14.01,2013-01-23 22:13:00,
2013-01-23 17:15:00,11.4,-7.2,30.05,WSW,256,0.0,0.0,42,0.00,,CLR,0.00,0.00,VWS V14.01,2013-01-23 22:15:00,
2013-01-23 17:17:00,12.3,-8.4,30.04,West,265,1.0,3.0,38,0.00,,BKN060,0.00,0.00,VWS V14.01,2013-01-23 22:17:00,
2013-01-23 17:20:00,11.2,-7.4,30.05,WSW,256,0.0,0.0,42,0.00,,CLR,0.00,0.00,VWS V14.01,2013-01-23 22:20:00,
2013-01-23 17:22:00,12.3,-8.4,30.04,WSW,237,2.0,3.0,38,0.00,,BKN060,0.00,0.00,VWS V14.01,2013-01-23 22:22:00,
2013-01-23 17:25:00,11.2,-6.9,30.05,West,268,0.0,0.0,43,0.00,,CLR,0.00,0.00,VWS V14.01,2013-01-23 22:25:00,
2013-01-23 17:27:00,12.1,-8.6,30.04,West,271,2.0,6.0,38,0.00,,BKN060,0.00,0.00,VWS V14.01,2013-01-23 22:27:00,
2013-01-23 17:30:00,11.1,-7.0,30.05,West,268,0.0,0.0,43,0.00,,CLR,0.00,0.00,VWS V14.01,2013-01-23 22:30:00,
2013-01-23 17:32:00,12.1,-8.1,30.04,West,267,3.0,6.0,39,0.00,,BKN060,0.00,0.00,VWS V14.01,2013-01-23 22:32:00,
2013-01-23 17:35:00,11.1,-6.5,30.05,West,268,0.0,0.0,44,0.00,,CLR,0.00,0.00,VWS V14.01,2013-01-23 22:35:00,
2013-01-23 17:37:00,12.1,-8.1,30.04,WSW,251,0.0,0.0,39,0.00,,BKN060,0.00,0.00,VWS V14.01,2013-01-23 22:37:00,
2013-01-23 17:40:00,10.9,-6.7,30.05,West,268,0.0,0.0,44,0.00,,CLR,0.00,0.00,VWS V14.01,2013-01-23 22:40:00,
2013-01-23 17:42:00,12.1,-8.1,30.04,West,260,3.0,5.0,39,0.00,,BKN060,0.00,0.00,VWS V14.01,2013-01-23 22:42:00,
2013-01-23 17:45:00,10.7,-6.4,30.06,West,268,0.0,0.0,45,0.00,,CLR,0.00,0.00,VWS V14.01,2013-01-23 22:45:00,
2013-01-23 17:47:00,11.9,-7.8,30.05,WNW,287,0.0,1.0,40,0.00,,BKN060,0.00,0.00,VWS V14.01,2013-01-23 22:47:00,
2013-01-23 17:50:00,10.7,-6.4,30.06,West,268,0.0,0.0,45,0.00,,CLR,0.00,0.00,VWS V14.01,2013-01-23 22:50:00,
2013-01-23 17:52:00,11.9,-7.8,30.05,WNW,287,0.0,1.0,40,0.00,,BKN060,0.00,0.00,VWS V14.01,2013-01-23 22:52:00,
2013-01-23 17:55:00,10.7,-6.0,30.06,West,268,0.0,0.0,46,0.00,,CLR,0.00,0.00,VWS V14.01,2013-01-23 22:55:00,
2013-01-23 17:57:00,11.7,-7.4,30.05,WSW,254,2.0,4.0,41,0.00,,BKN060,0.00,0.00,VWS V14.01,2013-01-23 22:57:00,
2013-01-23 18:00:00,10.5,-6.2,30.05,West,268,0.0,0.0,46,0.00,,CLR,0.00,0.00,VWS V14.01,2013-01-23 23:00:00,
2013-01-23 18:02:00,11.7,-7.4,30.05,WSW,256,0.0,0.0,41,0.00,,CLR,0.00,0.00,VWS V14.01,2013-01-23 23:02:00,
2013-01-23 18:05:00,10.4,-6.3,30.05,West,268,0.0,0.0,46,0.00,,CLR,0.00,0.00,VWS V14.01,2013-01-23 23:05:00,
2013-01-23 18:07:00,11.7,-7.4,30.05,WSW,256,0.0,0.0,41,0.00,,CLR,0.00,0.00,VWS V14.01,2013-01-23 23:07:00,
2013-01-23 18:10:00,10.2,-6.0,30.05,West,268,0.0,0.0,47,0.00,,CLR,0.00,0.00,VWS V14.01,2013-01-23 23:10:00,
2013-01-23 18:12:00,11.6,-7.0,30.05,WSW,256,0.0,0.0,42,0.00,,CLR,0.00,0.00,VWS V14.01,2013-01-23 23:12:00,
2013-01-23 18:15:00,10.2,-6.0,30.05,West,268,0.0,0.0,47,0.00,,CLR,0.00,0.00,VWS V14.01,2013-01-23 23:15:00,
2013-01-23 18:17:00,11.4,-7.2,30.05,WSW,256,0.0,0.0,42,0.00,,CLR,0.00,0.00,VWS V14.01,2013-01-23 23:17:00,
2013-01-23 18:20:00,10.0,-6.2,30.05,West,268,0.0,0.0,47,0.00,,CLR,0.00,0.00,VWS V14.01,2013-01-23 23:20:00,
2013-01-23 18:22:00,11.2,-7.4,30.05,West,268,0.0,3.0,42,0.00,,CLR,0.00,0.00,VWS V14.01,2013-01-23 23:22:00,
2013-01-23 18:25:00,10.0,-5.8,30.05,West,268,0.0,0.0,48,0.00,,CLR,0.00,0.00,VWS V14.01,2013-01-23 23:25:00,
2013-01-23 18:27:00,11.1,-7.0,30.05,West,268,0.0,0.0,43,0.00,,CLR,0.00,0.00,VWS V14.01,2013-01-23 23:27:00,
2013-01-23 18:30:00,9.9,-5.9,30.05,West,268,0.0,0.0,48,0.00,,CLR,0.00,0.00,VWS V14.01,2013-01-23 23:30:00,
2013-01-23 18:32:00,11.1,-6.5,30.05,West,268,0.0,0.0,44,0.00,,CLR,0.00,0.00,VWS V14.01,2013-01-23 23:32:00,
2013-01-23 18:35:00,9.7,-6.0,30.05,West,268,0.0,0.0,48,0.00,,CLR,0.00,0.00,VWS V14.01,2013-01-23 23:35:00,
2013-01-23 18:37:00,11.1,-6.5,30.05,West,268,0.0,0.0,44,0.00,,CLR,0.00,0.00,VWS V14.01,2013-01-23 23:37:00,
2013-01-23 18:40:00,9.7,-5.6,30.05,West,268,0.0,0.0,49,0.00,,CLR,0.00,0.00,VWS V14.01,2013-01-23 23:40:00,
2013-01-23 18:42:00,10.9,-6.7,30.05,West,268,0.0,0.0,44,0.00,,CLR,0.00,0.00,VWS V14.01,2013-01-23 23:42:00,
2013-01-23 18:45:00,9.7,-5.6,30.05,West,268,0.0,0.0,49,0.00,,CLR,0.00,0.00,VWS V14.01,2013-01-23 23:45:00,
2013-01-23 18:47:00,10.7,-6.4,30.06,West,268,0.0,0.0,45,0.00,,CLR,0.00,0.00,VWS V14.01,2013-01-23 23:47:00,
2013-01-23 18:50:00,9.7,-5.6,30.05,West,268,0.0,0.0,49,0.00,,CLR,0.00,0.00,VWS V14.01,2013-01-23 23:50:00,
2013-01-23 18:52:00,10.7,-6.4,30.06,West,268,0.0,0.0,45,0.00,,CLR,0.00,0.00,VWS V14.01,2013-01-23 23:52:00,
2013-01-23 18:55:00,9.5,-5.8,30.05,West,268,0.0,0.0,49,0.00,,CLR,0.00,0.00,VWS V14.01,2013-01-23 23:55:00,
2013-01-23 18:57:00,10.5,-6.2,30.06,West,268,0.0,0.0,46,0.00,,CLR,0.00,0.00,VWS V14.01,2013-01-23 23:57:00,
2013-01-23 19:00:00,9.3,-5.6,30.05,West,268,0.0,0.0,50,0.00,,CLR,0.00,0.00,VWS V14.01,2013-01-24 00:00:00,
2013-01-23 19:02:00,10.4,-6.3,30.05,West,268,0.0,0.0,46,0.00,,CLR,0.00,0.00,VWS V14.01,2013-01-24 00:02:00,
2013-01-23 19:05:00,9.2,-5.7,30.05,West,268,0.0,0.0,50,0.00,,CLR,0.00,0.00,VWS V14.01,2013-01-24 00:05:00,
2013-01-23 19:07:00,10.4,-6.3,30.05,West,268,0.0,0.0,46,0.00,,CLR,0.00,0.00,VWS V14.01,2013-01-24 00:07:00,
2013-01-23 19:10:00,9.0,-5.4,30.05,West,268,0.0,0.0,51,0.00,,CLR,0.00,0.00,VWS V14.01,2013-01-24 00:10:00,
2013-01-23 19:12:00,10.2,-6.0,30.05,West,268,0.0,0.0,47,0.00,,CLR,0.00,0.00,VWS V14.01,2013-01-24 00:12:00,
2013-01-23 19:15:00,9.0,-5.0,30.05,West,268,0.0,0.0,52,0.00,,CLR,0.00,0.00,VWS V14.01,2013-01-24 00:15:00,
2013-01-23 19:17:00,10.0,-6.2,30.05,West,268,0.0,0.0,47,0.00,,CLR,0.00,0.00,VWS V14.01,2013-01-24 00:17:00,
2013-01-23 19:20:00,8.8,-4.8,30.05,West,268,0.0,0.0,53,0.00,,CLR,0.00,0.00,VWS V14.01,2013-01-24 00:20:00,
2013-01-23 19:22:00,10.0,-5.8,30.05,West,268,0.0,0.0,48,0.00,,CLR,0.00,0.00,VWS V14.01,2013-01-24 00:22:00,
2013-01-23 19:25:00,8.6,-4.6,30.05,West,268,0.0,0.0,54,0.00,,CLR,0.00,0.00,VWS V14.01,2013-01-24 00:25:00,
2013-01-23 19:27:00,9.9,-5.9,30.05,West,268,0.0,0.0,48,0.00,,CLR,0.00,0.00,VWS V14.01,2013-01-24 00:27:00,
2013-01-23 19:30:00,8.4,-4.4,30.04,West,268,0.0,0.0,55,0.00,,CLR,0.00,0.00,VWS V14.01,2013-01-24 00:30:00,
2013-01-23 19:32:00,9.9,-5.9,30.05,West,268,0.0,0.0,48,0.00,,CLR,0.00,0.00,VWS V14.01,2013-01-24 00:32:00,
2013-01-23 19:35:00,8.3,-4.2,30.04,West,268,0.0,0.0,56,0.00,,CLR,0.00,0.00,VWS V14.01,2013-01-24 00:35:00,
2013-01-23 19:37:00,9.7,-6.0,30.05,West,268,0.0,0.0,48,0.00,,CLR,0.00,0.00,VWS V14.01,2013-01-24 00:37:00,
2013-01-23 19:40:00,8.1,-4.3,30.04,West,268,0.0,0.0,56,0.00,,CLR,0.00,0.00,VWS V14.01,2013-01-24 00:40:00,
2013-01-23 19:42:00,9.7,-5.6,30.05,West,268,0.0,0.0,49,0.00,,CLR,0.00,0.00,VWS V14.01,2013-01-24 00:42:00,
2013-01-23 19:45:00,7.9,-4.2,30.04,West,268,0.0,0.0,57,0.00,,CLR,0.00,0.00,VWS V14.01,2013-01-24 00:45:00,
2013-01-23 19:47:00,9.7,-5.6,30.05,West,268,0.0,0.0,49,0.00,,CLR,0.00,0.00,VWS V14.01,2013-01-24 00:47:00,
2013-01-23 19:50:00,7.7,-4.3,30.04,West,268,0.0,0.0,57,0.00,,CLR,0.00,0.00,VWS V14.01,2013-01-24 00:50:00,
2013-01-23 19:52:00,9.7,-5.6,30.05,West,268,0.0,0.0,49,0.00,,CLR,0.00,0.00,VWS V14.01,2013-01-24 00:52:00,
2013-01-23 19:55:00,7.6,-4.1,30.04,West,268,0.0,0.0,58,0.00,,CLR,0.00,0.00,VWS V14.01,2013-01-24 00:55:00,
2013-01-23 19:57:00,9.5,-5.8,30.05,West,268,0.0,0.0,49,0.00,,CLR,0.00,0.00,VWS V14.01,2013-01-24 00:57:00,
2013-01-23 20:00:00,7.6,-3.7,30.04,West,268,0.0,0.0,59,0.00,,CLR,0.00,0.00,VWS V14.01,2013-01-24 01:00:00,
2013-01-23 20:02:00,9.3,-5.6,30.05,West,268,0.0,0.0,50,0.00,,CLR,0.00,0.00,VWS V14.01,2013-01-24 01:02:00,
2013-01-23 20:05:00,7.4,-3.6,30.04,West,268,0.0,0.0,60,0.00,,CLR,0.00,0.00,VWS V14.01,2013-01-24 01:05:00,
2013-01-23 20:07:00,9.2,-5.2,30.05,West,268,0.0,0.0,51,0.00,,CLR,0.00,0.00,VWS V14.01,2013-01-24 01:07:00,
2013-01-23 20:10:00,7.2,-3.4,30.04,West,268,1.0,1.0,61,0.00,,CLR,0.00,0.00,VWS V14.01,2013-01-24 01:10:00,
2013-01-23 20:12:00,9.0,-5.4,30.05,West,268,0.0,0.0,51,0.00,,CLR,0.00,0.00,VWS V14.01,2013-01-24 01:12:00,
2013-01-23 20:15:00,7.0,-3.3,30.04,West,264,0.0,0.0,62,0.00,,CLR,0.00,0.00,VWS V14.01,2013-01-24 01:15:00,
2013-01-23 20:17:00,8.8,-5.2,30.05,West,268,0.0,0.0,52,0.00,,CLR,0.00,0.00,VWS V14.01,2013-01-24 01:17:00,
2013-01-23 20:20:00,6.9,-3.0,30.04,West,264,0.0,0.0,63,0.00,,CLR,0.00,0.00,VWS V14.01,2013-01-24 01:20:00,
2013-01-23 20:22:00,8.8,-4.8,30.05,West,268,0.0,0.0,53,0.00,,CLR,0.00,0.00,VWS V14.01,2013-01-24 01:22:00,
2013-01-23 20:25:00,6.9,-2.7,30.04,West,264,0.0,0.0,64,0.00,,CLR,0.00,0.00,VWS V14.01,2013-01-24 01:25:00,
2013-01-23 20:27:00,8.6,-4.6,30.05,West,268,0.0,0.0,54,0.00,,CLR,0.00,0.00,VWS V14.01,2013-01-24 01:27:00,
2013-01-23 20:30:00,6.7,-2.9,30.05,West,264,0.0,0.0,64,0.00,,CLR,0.00,0.00,VWS V14.01,2013-01-24 01:30:00,
2013-01-23 20:32:00,8.4,-4.4,30.04,West,268,0.0,0.0,55,0.00,,CLR,0.00,0.00,VWS V14.01,2013-01-24 01:32:00,
2013-01-23 20:35:00,6.5,-3.1,30.05,West,265,0.0,0.0,64,0.00,,CLR,0.00,0.00,VWS V14.01,2013-01-24 01:35:00,
2013-01-23 20:37:00,8.3,-4.2,30.04,West,268,0.0,0.0,56,0.00,,CLR,0.00,0.00,VWS V14.01,2013-01-24 01:37:00,
2013-01-23 20:40:00,6.3,-3.3,30.05,West,264,0.0,0.0,64,0.00,,CLR,0.00,0.00,VWS V14.01,2013-01-24 01:40:00,
2013-01-23 20:42:00,8.1,-4.3,30.04,West,268,0.0,0.0,56,0.00,,CLR,0.00,0.00,VWS V14.01,2013-01-24 01:42:00,
2013-01-23 20:45:00,6.5,-2.7,30.05,West,264,0.0,0.0,65,0.00,,CLR,0.00,0.00,VWS V14.01,2013-01-24 01:45:00,
2013-01-23 20:47:00,7.9,-4.2,30.04,West,268,0.0,0.0,57,0.00,,CLR,0.00,0.00,VWS V14.01,2013-01-24 01:47:00,
2013-01-23 20:50:00,6.5,-2.4,30.05,West,264,0.0,0.0,66,0.00,,CLR,0.00,0.00,VWS V14.01,2013-01-24 01:50:00,
2013-01-23 20:52:00,7.7,-4.0,30.04,West,268,0.0,0.0,58,0.00,,CLR,0.00,0.00,VWS V14.01,2013-01-24 01:52:00,
2013-01-23 20:55:00,6.5,-2.4,30.05,West,264,0.0,0.0,66,0.00,,CLR,0.00,0.00,VWS V14.01,2013-01-24 01:55:00,
2013-01-23 20:57:00,7.6,-3.7,30.04,West,268,0.0,0.0,59,0.00,,CLR,0.00,0.00,VWS V14.01,2013-01-24 01:57:00,
2013-01-23 21:00:00,6.5,-2.4,30.05,West,264,0.0,0.0,66,0.00,,CLR,0.00,0.00,VWS V14.01,2013-01-24 02:00:00,
2013-01-23 21:02:00,7.4,-3.6,30.04,West,268,0.0,0.0,60,0.00,,CLR,0.00,0.00,VWS V14.01,2013-01-24 02:02:00,
2013-01-23 21:05:00,6.3,-2.6,30.05,West,264,0.0,0.0,66,0.00,,CLR,0.00,0.00,VWS V14.01,2013-01-24 02:05:00,
2013-01-23 21:07:00,7.2,-3.8,30.04,West,268,0.0,0.0,60,0.00,,CLR,0.00,0.00,VWS V14.01,2013-01-24 02:07:00,
2013-01-23 21:10:00,6.3,-2.3,30.05,West,264,0.0,0.0,67,0.00,,CLR,0.00,0.00,VWS V14.01,2013-01-24 02:10:00,
2013-01-23 21:12:00,7.0,-3.3,30.04,West,264,0.0,1.0,62,0.00,,CLR,0.00,0.00,VWS V14.01,2013-01-24 02:12:00,
2013-01-23 21:15:00,6.3,-2.3,30.05,West,264,0.0,0.0,67,0.00,,CLR,0.00,0.00,VWS V14.01,2013-01-24 02:15:00,
2013-01-23 21:17:00,7.0,-2.9,30.04,West,264,0.0,0.0,63,0.00,,CLR,0.00,0.00,VWS V14.01,2013-01-24 02:17:00,
2013-01-23 21:20:00,6.3,-2.3,30.05,West,264,0.0,0.0,67,0.00,,CLR,0.00,0.00,VWS V14.01,2013-01-24 02:20:00,
2013-01-23 21:22:00,6.9,-3.0,30.04,West,264,0.0,0.0,63,0.00,,CLR,0.00,0.00,VWS V14.01,2013-01-24 02:22:00,
2013-01-23 21:25:00,6.3,-2.3,30.05,West,264,0.0,0.0,67,0.00,,CLR,0.00,0.00,VWS V14.01,2013-01-24 02:25:00,
2013-01-23 21:27:00,6.7,-2.9,30.04,West,264,0.0,0.0,64,0.00,,CLR,0.00,0.00,VWS V14.01,2013-01-24 02:27:00,
2013-01-23 21:30:00,6.3,-2.0,30.05,West,264,0.0,0.0,68,0.00,,CLR,0.00,0.00,VWS V14.01,2013-01-24 02:30:00,
2013-01-23 21:32:00,6.7,-2.9,30.05,West,264,0.0,0.0,64,0.00,,CLR,0.00,0.00,VWS V14.01,2013-01-24 02:32:00,
2013-01-23 21:35:00,6.3,-2.0,30.05,West,264,0.0,0.0,68,0.00,,CLR,0.00,0.00,VWS V14.01,2013-01-24 02:35:00,
2013-01-23 21:37:00,6.5,-3.1,30.05,West,264,0.0,0.0,64,0.00,,CLR,0.00,0.00,VWS V14.01,2013-01-24 02:37:00,
2013-01-23 21:40:00,6.3,-2.0,30.05,West,264,0.0,0.0,68,0.00,,CLR,0.00,0.00,VWS V14.01,2013-01-24 02:40:00,
2013-01-23 21:42:00,6.3,-2.9,30.05,West,264,0.0,0.0,65,0.00,,CLR,0.00,0.00,VWS V14.01,2013-01-24 02:42:00,
2013-01-23 21:45:00,6.3,-2.0,30.05,West,264,0.0,0.0,68,0.00,,CLR,0.00,0.00,VWS V14.01,2013-01-24 02:45:00,
2013-01-23 21:47:00,6.5,-2.7,30.05,West,264,0.0,0.0,65,0.00,,CLR,0.00,0.00,VWS V14.01,2013-01-24 02:47:00,
2013-01-23 21:50:00,6.1,-2.2,30.05,West,265,0.0,0.0,68,0.00,,CLR,0.00,0.00,VWS V14.01,2013-01-24 02:50:00,
2013-01-23 21:52:00,6.5,-2.4,30.05,West,264,0.0,0.0,66,0.00,,CLR,0.00,0.00,VWS V14.01,2013-01-24 02:52:00,
2013-01-23 21:55:00,6.1,-2.2,30.05,West,264,0.0,0.0,68,0.00,,CLR,0.00,0.00,VWS V14.01,2013-01-24 02:55:00,
2013-01-23 21:57:00,6.5,-2.4,30.05,West,264,0.0,0.0,66,0.00,,CLR,0.00,0.00,VWS V14.01,2013-01-24 02:57:00,
2013-01-23 22:00:00,6.1,-1.9,30.04,West,264,0.0,0.0,69,0.00,,CLR,0.00,0.00,VWS V14.01,2013-01-24 03:00:00,
2013-01-23 22:02:00,6.5,-2.4,30.05,West,264,0.0,0.0,66,0.00,,FEW110,0.00,0.00,VWS V14.01,2013-01-24 03:02:00,
2013-01-23 22:05:00,6.1,-1.9,30.04,West,264,0.0,0.0,69,0.00,,CLR,0.00,0.00,VWS V14.01,2013-01-24 03:05:00,
2013-01-23 22:07:00,6.3,-2.6,30.05,West,264,0.0,0.0,66,0.00,,FEW110,0.00,0.00,VWS V14.01,2013-01-24 03:07:00,
2013-01-23 22:10:00,6.1,-1.9,30.04,West,264,0.0,0.0,69,0.00,,CLR,0.00,0.00,VWS V14.01,2013-01-24 03:10:00,
2013-01-23 22:12:00,6.3,-2.3,30.05,West,264,0.0,0.0,67,0.00,,FEW110,0.00,0.00,VWS V14.01,2013-01-24 03:12:00,
2013-01-23 22:15:00,6.1,-1.9,30.04,West,264,0.0,0.0,69,0.00,,CLR,0.00,0.00,VWS V14.01,2013-01-24 03:15:00,
2013-01-23 22:17:00,6.3,-2.3,30.05,West,264,0.0,0.0,67,0.00,,FEW110,0.00,0.00,VWS V14.01,2013-01-24 03:17:00,
2013-01-23 22:20:00,6.1,-1.9,30.04,West,264,0.0,0.0,69,0.00,,CLR,0.00,0.00,VWS V14.01,2013-01-24 03:20:00,
2013-01-23 22:22:00,6.3,-2.3,30.05,West,264,0.0,0.0,67,0.00,,FEW110,0.00,0.00,VWS V14.01,2013-01-24 03:22:00,
2013-01-23 22:25:00,6.1,-1.9,30.04,West,264,0.0,0.0,69,0.00,,CLR,0.00,0.00,VWS V14.01,2013-01-24 03:25:00,
2013-01-23 22:27:00,6.1,-2.5,30.05,West,264,0.0,0.0,67,0.00,,FEW110,0.00,0.00,VWS V14.01,2013-01-24 03:27:00,
2013-01-23 22:30:00,6.1,-1.9,30.04,West,264,0.0,0.0,69,0.00,,CLR,0.00,0.00,VWS V14.01,2013-01-24 03:30:00,
2013-01-23 22:32:00,6.3,-2.0,30.05,West,264,0.0,0.0,68,0.00,,FEW110,0.00,0.00,VWS V14.01,2013-01-24 03:32:00,
2013-01-23 22:35:00,6.3,-1.7,30.04,West,264,0.0,0.0,69,0.00,,CLR,0.00,0.00,VWS V14.01,2013-01-24 03:35:00,
2013-01-23 22:37:00,6.3,-2.0,30.05,West,264,0.0,0.0,68,0.00,,FEW110,0.00,0.00,VWS V14.01,2013-01-24 03:37:00,
2013-01-23 22:40:00,6.3,-1.7,30.04,West,264,0.0,0.0,69,0.00,,CLR,0.00,0.00,VWS V14.01,2013-01-24 03:40:00,
2013-01-23 22:42:00,6.3,-2.0,30.05,West,264,0.0,0.0,68,0.00,,FEW110,0.00,0.00,VWS V14.01,2013-01-24 03:42:00,
2013-01-23 22:45:00,6.5,-1.5,30.04,West,264,0.0,0.0,69,0.00,,CLR,0.00,0.00,VWS V14.01,2013-01-24 03:45:00,
2013-01-23 22:47:00,6.3,-2.0,30.05,West,264,0.0,0.0,68,0.00,,FEW110,0.00,0.00,VWS V14.01,2013-01-24 03:47:00,
2013-01-23 22:50:00,6.7,-1.3,30.04,West,264,0.0,0.0,69,0.00,,CLR,0.00,0.00,VWS V14.01,2013-01-24 03:50:00,
2013-01-23 22:52:00,6.1,-2.2,30.05,West,264,0.0,0.0,68,0.00,,FEW110,0.00,0.00,VWS V14.01,2013-01-24 03:52:00,
2013-01-23 22:55:00,6.7,-1.3,30.04,West,264,0.0,0.0,69,0.00,,CLR,0.00,0.00,VWS V14.01,2013-01-24 03:55:00,
2013-01-23 22:57:00,6.1,-2.2,30.05,West,264,0.0,0.0,68,0.00,,FEW110,0.00,0.00,VWS V14.01,2013-01-24 03:57:00,
2013-01-23 23:00:00,6.7,-1.3,30.03,West,264,0.0,0.0,69,0.00,,CLR,0.00,0.00,VWS V14.01,2013-01-24 04:00:00,
2013-01-23 23:02:00,6.1,-1.9,30.04,West,264,0.0,0.0,69,0.00,,OVC120,0.00,0.00,VWS V14.01,2013-01-24 04:02:00,
2013-01-23 23:05:00,6.7,-1.3,30.03,West,264,0.0,0.0,69,0.00,,CLR,0.00,0.00,VWS V14.01,2013-01-24 04:05:00,
2013-01-23 23:07:00,6.1,-1.9,30.04,West,264,0.0,0.0,69,0.00,,OVC120,0.00,0.00,VWS V14.01,2013-01-24 04:07:00,
2013-01-23 23:10:00,6.9,-1.1,30.03,West,264,0.0,0.0,69,0.00,,CLR,0.00,0.00,VWS V14.01,2013-01-24 04:10:00,
2013-01-23 23:12:00,6.1,-1.9,30.04,West,264,0.0,0.0,69,0.00,,OVC120,0.00,0.00,VWS V14.01,2013-01-24 04:12:00,
2013-01-23 23:15:00,6.9,-1.1,30.02,West,264,0.0,0.0,69,0.00,,CLR,0.00,0.00,VWS V14.01,2013-01-24 04:15:00,
2013-01-23 23:17:00,6.1,-1.9,30.04,West,264,0.0,0.0,69,0.00,,OVC120,0.00,0.00,VWS V14.01,2013-01-24 04:17:00,
2013-01-23 23:20:00,6.9,-1.1,30.02,West,264,0.0,0.0,69,0.00,,CLR,0.00,0.00,VWS V14.01,2013-01-24 04:20:00,
2013-01-23 23:22:00,6.1,-1.9,30.04,West,264,0.0,0.0,69,0.00,,OVC120,0.00,0.00,VWS V14.01,2013-01-24 04:22:00,
2013-01-23 23:25:00,6.9,-1.1,30.02,West,264,0.0,0.0,69,0.00,,CLR,0.00,0.00,VWS V14.01,2013-01-24 04:25:00,
2013-01-23 23:27:00,6.1,-1.9,30.04,West,264,0.0,0.0,69,0.00,,OVC120,0.00,0.00,VWS V14.01,2013-01-24 04:27:00,
2013-01-23 23:30:00,6.9,-1.4,30.02,West,264,0.0,0.0,68,0.00,,CLR,0.00,0.00,VWS V14.01,2013-01-24 04:30:00,
2013-01-23 23:32:00,6.1,-1.9,30.04,West,264,0.0,0.0,69,0.00,,OVC120,0.00,0.00,VWS V14.01,2013-01-24 04:32:00,
2013-01-23 23:35:00,7.0,-1.3,30.02,West,264,0.0,0.0,68,0.00,,CLR,0.00,0.00,VWS V14.01,2013-01-24 04:35:00,
2013-01-23 23:37:00,6.3,-1.7,30.04,West,264,0.0,0.0,69,0.00,,OVC120,0.00,0.00,VWS V14.01,2013-01-24 04:37:00,
2013-01-23 23:40:00,6.9,-1.4,30.02,West,264,0.0,0.0,68,0.00,,CLR,0.00,0.00,VWS V14.01,2013-01-24 04:40:00,
2013-01-23 23:42:00,6.3,-1.7,30.04,West,264,0.0,0.0,69,0.00,,OVC120,0.00,0.00,VWS V14.01,2013-01-24 04:42:00,
2013-01-23 23:45:00,6.9,-1.4,30.01,West,264,0.0,0.0,68,0.00,,CLR,0.00,0.00,VWS V14.01,2013-01-24 04:45:00,
2013-01-23 23:47:00,6.7,-1.3,30.04,West,264,0.0,0.0,69,0.00,,OVC120,0.00,0.00,VWS V14.01,2013-01-24 04:47:00,
2013-01-23 23:50:00,6.9,-1.4,30.01,West,264,0.0,0.0,68,0.00,,CLR,0.00,0.00,VWS V14.01,2013-01-24 04:50:00,
2013-01-23 23:52:00,6.7,-1.3,30.04,West,264,0.0,0.0,69,0.00,,OVC120,0.00,0.00,VWS V14.01,2013-01-24 04:52:00,
2013-01-23 23:55:00,6.7,-1.9,30.01,West,264,0.0,0.0,67,0.00,,CLR,0.00,0.00,VWS V14.01,2013-01-24 04:55:00,
2013-01-23 23:57:00,6.7,-1.3,30.04,West,264,0.0,0.0,69,0.00,,OVC120,0.00,0.00,VWS V14.01,2013-01-24 04:57:00,